Time,TemperatureF,DewpointF,PressureIn,WindDirection,WindDirectionDegrees,WindSpeedMPH,WindSpeedGustMPH,Humidity,HourlyPrecipIn,Conditions,Clouds,dailyrainin,SoftwareType,DateUTC
2013-07-08 00:01:00,68.2,37.9,30.32,WSW,248,3.0,6.0,33,0.00,,,0.18,meteohub,2013-07-08 04:01:00,
2013-07-08 00:02:00,68.2,37.9,30.32,WSW,248,3.0,6.0,33,0.00,,,0.18,meteohub,2013-07-08 04:02:00,
2013-07-08 00:03:00,68.2,37.9,30.32,WSW,248,2.0,6.0,33,0.00,,,0.18,meteohub,2013-07-08 04:03:00,
2013-07-08 00:06:00,68.2,37.9,30.32,South,180,4.0,6.0,33,0.00,,,0.00,meteohub,2013-07-08 04:06:00,
2013-07-08 00:07:00,68.2,37.9,30.32,South,180,2.0,6.0,33,0.00,,,0.00,meteohub,2013-07-08 04:07:00,
2013-07-08 00:08:00,68.2,37.9,30.32,NE,45,4.0,6.0,33,0.00,,,0.00,meteohub,2013-07-08 04:08:00,
2013-07-08 00:11:00,68.2,37.9,30.32,SE,135,1.0,5.0,33,0.00,,,0.00,meteohub,2013-07-08 04:11:00,
2013-07-08 00:13:00,68.2,37.9,30.32,SE,135,2.0,5.0,33,0.00,,,0.00,meteohub,2013-07-08 04:13:00,
2013-07-08 00:14:00,68.2,37.9,30.32,WSW,248,2.0,5.0,33,0.00,,,0.00,meteohub,2013-07-08 04:14:00,
2013-07-08 00:17:00,68.2,37.9,30.32,South,180,4.0,4.0,33,0.00,,,0.00,meteohub,2013-07-08 04:17:00,
2013-07-08 00:18:00,68.0,37.8,30.32,South,180,2.0,4.0,33,0.00,,,0.00,meteohub,2013-07-08 04:18:00,
2013-07-08 00:19:00,68.0,37.8,30.32,South,180,2.0,4.0,33,0.00,,,0.00,meteohub,2013-07-08 04:19:00,
2013-07-08 00:22:00,68.0,37.8,30.32,West,270,4.0,4.0,33,0.00,,,0.00,meteohub,2013-07-08 04:22:00,
2013-07-08 00:23:00,68.0,37.8,30.32,South,180,3.0,4.0,33,0.00,,,0.00,meteohub,2013-07-08 04:23:00,
2013-07-08 00:24:00,68.0,37.8,30.32,WSW,248,6.0,6.0,33,0.00,,,0.00,meteohub,2013-07-08 04:24:00,
2013-07-08 00:25:00,68.0,37.8,30.32,SE,135,4.0,6.0,33,0.00,,,0.00,meteohub,2013-07-08 04:25:00,
2013-07-08 00:26:00,68.0,37.8,30.33,South,180,2.0,6.0,33,0.00,,,0.00,meteohub,2013-07-08 04:26:00,
2013-07-08 00:28:00,68.0,37.8,30.32,WSW,248,2.0,6.0,33,0.00,,,0.00,meteohub,2013-07-08 04:28:00,
2013-07-08 00:30:00,68.2,37.9,30.32,WSW,248,4.0,6.0,33,0.00,,,0.00,meteohub,2013-07-08 04:30:00,
2013-07-08 00:31:00,68.0,37.8,30.32,NW,315,2.0,6.0,33,0.00,,,0.00,meteohub,2013-07-08 04:31:00,
2013-07-08 00:32:00,68.0,37.8,30.33,NW,315,2.0,6.0,33,0.00,,,0.00,meteohub,2013-07-08 04:32:00,
2013-07-08 00:33:00,68.0,37.8,30.32,WSW,248,2.0,6.0,33,0.00,,,0.00,meteohub,2013-07-08 04:33:00,
2013-07-08 00:35:00,68.0,37.8,30.32,SE,135,2.0,6.0,33,0.00,,,0.00,meteohub,2013-07-08 04:35:00,
2013-07-08 00:37:00,68.0,37.8,30.32,South,180,0.0,6.0,33,0.00,,,0.00,meteohub,2013-07-08 04:37:00,
2013-07-08 00:38:00,68.0,37.8,30.32,South,180,5.0,6.0,33,0.00,,,0.00,meteohub,2013-07-08 04:38:00,
2013-07-08 00:39:00,68.0,37.8,30.33,South,180,3.0,6.0,33,0.00,,,0.00,meteohub,2013-07-08 04:39:00,
2013-07-08 00:40:00,68.0,37.8,30.32,NW,315,4.0,5.0,33,0.00,,,0.00,meteohub,2013-07-08 04:40:00,
2013-07-08 00:42:00,68.0,37.8,30.32,WSW,248,3.0,5.0,33,0.00,,,0.00,meteohub,2013-07-08 04:42:00,
2013-07-08 00:44:00,68.0,37.8,30.32,ENE,68,2.0,5.0,33,0.00,,,0.00,meteohub,2013-07-08 04:44:00,
2013-07-08 00:45:00,68.0,37.8,30.32,SE,135,3.0,5.0,33,0.00,,,0.00,meteohub,2013-07-08 04:45:00,
2013-07-08 00:49:00,68.0,37.8,30.33,South,180,1.0,5.0,33,0.00,,,0.00,meteohub,2013-07-08 04:49:00,
2013-07-08 00:50:00,68.0,37.8,30.33,South,180,1.0,5.0,33,0.00,,,0.00,meteohub,2013-07-08 04:50:00,
2013-07-08 00:51:00,68.0,37.8,30.32,South,180,1.0,5.0,33,0.00,,,0.00,meteohub,2013-07-08 04:51:00,
2013-07-08 00:52:00,68.0,38.7,30.32,SE,135,1.0,5.0,34,0.00,,,0.00,meteohub,2013-07-08 04:52:00,
2013-07-08 00:54:00,68.0,37.8,30.32,WSW,248,4.0,5.0,33,0.00,,,0.00,meteohub,2013-07-08 04:54:00,
2013-07-08 00:56:00,68.0,37.8,30.32,SE,135,2.0,4.0,33,0.00,,,0.00,meteohub,2013-07-08 04:56:00,
2013-07-08 00:57:00,67.8,38.5,30.32,NW,315,2.0,4.0,34,0.00,,,0.00,meteohub,2013-07-08 04:57:00,
2013-07-08 00:58:00,67.8,38.5,30.32,NW,315,2.0,4.0,34,0.00,,,0.00,meteohub,2013-07-08 04:58:00,
2013-07-08 00:59:00,67.8,38.5,30.32,SE,135,3.0,4.0,34,0.00,,,0.00,meteohub,2013-07-08 04:59:00,
2013-07-08 01:02:00,67.8,37.6,30.32,South,180,5.0,8.0,33,0.00,,,0.00,meteohub,2013-07-08 05:02:00,
2013-07-08 01:03:00,67.8,38.5,30.32,SE,135,5.0,8.0,34,0.00,,,0.00,meteohub,2013-07-08 05:03:00,
2013-07-08 01:04:00,67.8,37.6,30.33,East,90,4.0,8.0,33,0.00,,,0.00,meteohub,2013-07-08 05:04:00,
2013-07-08 01:07:00,67.8,38.5,30.32,South,180,2.0,8.0,34,0.00,,,0.00,meteohub,2013-07-08 05:07:00,
2013-07-08 01:08:00,67.8,38.5,30.32,South,180,2.0,8.0,34,0.00,,,0.00,meteohub,2013-07-08 05:08:00,
2013-07-08 01:09:00,67.8,38.5,30.32,West,270,4.0,8.0,34,0.00,,,0.00,meteohub,2013-07-08 05:09:00,
2013-07-08 01:10:00,67.8,37.6,30.32,South,180,4.0,8.0,33,0.00,,,0.00,meteohub,2013-07-08 05:10:00,
2013-07-08 01:13:00,67.8,37.6,30.32,WSW,248,4.0,8.0,33,0.00,,,0.00,meteohub,2013-07-08 05:13:00,
2013-07-08 01:14:00,67.8,37.6,30.32,NW,315,4.0,8.0,33,0.00,,,0.00,meteohub,2013-07-08 05:14:00,
2013-07-08 01:15:00,67.8,38.5,30.32,NE,45,2.0,5.0,34,0.00,,,0.00,meteohub,2013-07-08 05:15:00,
2013-07-08 01:16:00,67.8,37.6,30.32,WSW,248,2.0,5.0,33,0.00,,,0.00,meteohub,2013-07-08 05:16:00,
2013-07-08 01:18:00,67.8,38.5,30.32,WSW,248,6.0,6.0,34,0.00,,,0.00,meteohub,2013-07-08 05:18:00,
2013-07-08 01:19:00,67.8,37.6,30.32,South,180,6.0,6.0,33,0.00,,,0.00,meteohub,2013-07-08 05:19:00,
2013-07-08 01:20:00,67.8,38.5,30.32,West,270,4.0,5.0,34,0.00,,,0.00,meteohub,2013-07-08 05:20:00,
2013-07-08 01:22:00,67.8,38.5,30.32,NW,315,3.0,6.0,34,0.00,,,0.00,meteohub,2013-07-08 05:22:00,
2013-07-08 01:24:00,67.8,38.5,30.32,South,180,3.0,6.0,34,0.00,,,0.00,meteohub,2013-07-08 05:24:00,
2013-07-08 01:25:00,67.8,38.5,30.32,South,180,3.0,6.0,34,0.00,,,0.00,meteohub,2013-07-08 05:25:00,
2013-07-08 01:26:00,67.6,38.3,30.32,South,180,2.0,6.0,34,0.00,,,0.00,meteohub,2013-07-08 05:26:00,
2013-07-08 01:28:00,67.6,38.3,30.32,South,180,3.0,6.0,34,0.00,,,0.00,meteohub,2013-07-08 05:28:00,
2013-07-08 01:30:00,67.6,38.3,30.32,South,180,2.0,6.0,34,0.00,,,0.00,meteohub,2013-07-08 05:30:00,
2013-07-08 01:31:00,67.6,38.3,30.32,WSW,248,2.0,6.0,34,0.00,,,0.00,meteohub,2013-07-08 05:31:00,
2013-07-08 01:32:00,67.6,38.3,30.32,WSW,248,2.0,6.0,34,0.00,,,0.00,meteohub,2013-07-08 05:32:00,
2013-07-08 01:35:00,67.6,38.3,30.32,WSW,248,1.0,6.0,34,0.00,,,0.00,meteohub,2013-07-08 05:35:00,
2013-07-08 01:36:00,67.6,38.3,30.32,WSW,248,0.0,6.0,34,0.00,,,0.00,meteohub,2013-07-08 05:36:00,
2013-07-08 01:38:00,67.6,38.3,30.32,West,270,4.0,6.0,34,0.00,,,0.00,meteohub,2013-07-08 05:38:00,
2013-07-08 01:40:00,67.6,38.3,30.32,WSW,248,3.0,5.0,34,0.00,,,0.00,meteohub,2013-07-08 05:40:00,
2013-07-08 01:41:00,67.6,38.3,30.32,SE,135,3.0,5.0,34,0.00,,,0.00,meteohub,2013-07-08 05:41:00,
2013-07-08 01:42:00,67.6,38.3,30.32,SE,135,3.0,5.0,34,0.00,,,0.00,meteohub,2013-07-08 05:42:00,
2013-07-08 01:43:00,67.6,38.3,30.32,WSW,248,2.0,5.0,34,0.00,,,0.00,meteohub,2013-07-08 05:43:00,
2013-07-08 01:46:00,67.6,38.3,30.32,West,270,2.0,5.0,34,0.00,,,0.00,meteohub,2013-07-08 05:46:00,
2013-07-08 01:47:00,67.6,38.3,30.32,West,270,2.0,5.0,34,0.00,,,0.00,meteohub,2013-07-08 05:47:00,
2013-07-08 01:48:00,67.6,38.3,30.32,WSW,248,4.0,5.0,34,0.00,,,0.00,meteohub,2013-07-08 05:48:00,
2013-07-08 01:52:00,67.5,38.1,30.32,South,180,2.0,5.0,34,0.00,,,0.00,meteohub,2013-07-08 05:52:00,
2013-07-08 01:53:00,67.5,38.1,30.32,West,270,2.0,5.0,34,0.00,,,0.00,meteohub,2013-07-08 05:53:00,
2013-07-08 01:55:00,67.5,38.1,30.32,East,90,8.0,8.0,34,0.00,,,0.00,meteohub,2013-07-08 05:55:00,
2013-07-08 01:57:00,67.5,38.1,30.32,WSW,248,4.0,5.0,34,0.00,,,0.00,meteohub,2013-07-08 05:57:00,
2013-07-08 01:58:00,67.5,38.1,30.32,South,180,2.0,5.0,34,0.00,,,0.00,meteohub,2013-07-08 05:58:00,
2013-07-08 02:00:00,67.5,38.1,30.32,South,180,2.0,8.0,34,0.00,,,0.00,meteohub,2013-07-08 06:00:00,
2013-07-08 02:02:00,67.5,38.1,30.32,NW,315,1.0,8.0,34,0.00,,,0.00,meteohub,2013-07-08 06:02:00,
2013-07-08 02:03:00,67.5,38.8,30.32,NW,315,3.0,8.0,35,0.00,,,0.00,meteohub,2013-07-08 06:03:00,
2013-07-08 02:04:00,67.5,38.8,30.32,North,0,3.0,8.0,35,0.00,,,0.00,meteohub,2013-07-08 06:04:00,
2013-07-08 02:05:00,67.5,38.8,30.32,South,180,6.0,8.0,35,0.00,,,0.00,meteohub,2013-07-08 06:05:00,
2013-07-08 02:06:00,67.5,38.8,30.32,WSW,248,3.0,8.0,35,0.00,,,0.00,meteohub,2013-07-08 06:06:00,
2013-07-08 02:08:00,67.5,38.8,30.32,North,0,5.0,8.0,35,0.00,,,0.00,meteohub,2013-07-08 06:08:00,
2013-07-08 02:10:00,67.5,38.8,30.32,WSW,248,4.0,8.0,35,0.00,,,0.00,meteohub,2013-07-08 06:10:00,
2013-07-08 02:11:00,67.5,38.8,30.32,South,180,6.0,8.0,35,0.00,,,0.00,meteohub,2013-07-08 06:11:00,
2013-07-08 02:12:00,67.5,38.8,30.32,West,270,8.0,8.0,35,0.00,,,0.00,meteohub,2013-07-08 06:12:00,
2013-07-08 02:15:00,67.5,38.8,30.31,SE,135,4.0,8.0,35,0.00,,,0.00,meteohub,2013-07-08 06:15:00,
2013-07-08 02:17:00,67.5,38.8,30.31,West,270,5.0,8.0,35,0.00,,,0.00,meteohub,2013-07-08 06:17:00,
2013-07-08 02:18:00,67.5,38.8,30.32,NW,315,7.0,8.0,35,0.00,,,0.00,meteohub,2013-07-08 06:18:00,
2013-07-08 02:21:00,67.5,38.8,30.31,WSW,248,4.0,8.0,35,0.00,,,0.00,meteohub,2013-07-08 06:21:00,
2013-07-08 02:22:00,67.5,38.8,30.32,WSW,248,2.0,8.0,35,0.00,,,0.00,meteohub,2013-07-08 06:22:00,
2013-07-08 02:23:00,67.3,38.7,30.32,NW,315,3.0,8.0,35,0.00,,,0.00,meteohub,2013-07-08 06:23:00,
2013-07-08 02:24:00,67.5,38.8,30.31,SE,135,3.0,8.0,35,0.00,,,0.00,meteohub,2013-07-08 06:24:00,
2013-07-08 02:27:00,67.3,38.7,30.32,South,180,4.0,8.0,35,0.00,,,0.00,meteohub,2013-07-08 06:27:00,
2013-07-08 02:29:00,67.3,38.7,30.32,West,270,2.0,8.0,35,0.00,,,0.00,meteohub,2013-07-08 06:29:00,
2013-07-08 02:30:00,67.3,38.7,30.32,WSW,248,3.0,8.0,35,0.00,,,0.00,meteohub,2013-07-08 06:30:00,
2013-07-08 02:33:00,67.3,38.7,30.32,NE,45,4.0,7.0,35,0.00,,,0.00,meteohub,2013-07-08 06:33:00,
2013-07-08 02:34:00,67.3,39.4,30.32,West,270,3.0,7.0,36,0.00,,,0.00,meteohub,2013-07-08 06:34:00,
2013-07-08 02:35:00,67.3,39.4,30.32,West,270,3.0,7.0,36,0.00,,,0.00,meteohub,2013-07-08 06:35:00,
2013-07-08 02:36:00,67.3,38.7,30.32,WSW,248,2.0,4.0,35,0.00,,,0.00,meteohub,2013-07-08 06:36:00,
2013-07-08 02:39:00,67.3,39.4,30.32,South,180,7.0,7.0,36,0.00,,,0.00,meteohub,2013-07-08 06:39:00,
2013-07-08 02:40:00,67.3,39.4,30.32,WSW,248,2.0,4.0,36,0.00,,,0.00,meteohub,2013-07-08 06:40:00,
2013-07-08 02:42:00,67.3,39.4,30.32,West,270,3.0,7.0,36,0.00,,,0.00,meteohub,2013-07-08 06:42:00,
2013-07-08 02:44:00,67.3,39.4,30.32,East,90,6.0,7.0,36,0.00,,,0.00,meteohub,2013-07-08 06:44:00,
2013-07-08 02:45:00,67.3,39.4,30.32,SE,135,2.0,7.0,36,0.00,,,0.00,meteohub,2013-07-08 06:45:00,
2013-07-08 02:46:00,67.3,39.4,30.32,SE,135,2.0,7.0,36,0.00,,,0.00,meteohub,2013-07-08 06:46:00,
2013-07-08 02:48:00,67.3,39.4,30.32,NW,315,5.0,7.0,36,0.00,,,0.00,meteohub,2013-07-08 06:48:00,
2013-07-08 02:50:00,67.3,39.4,30.32,SE,135,4.0,7.0,36,0.00,,,0.00,meteohub,2013-07-08 06:50:00,
2013-07-08 02:51:00,67.1,39.2,30.32,NW,315,3.0,7.0,36,0.00,,,0.00,meteohub,2013-07-08 06:51:00,
2013-07-08 02:52:00,67.1,39.2,30.32,WSW,248,4.0,7.0,36,0.00,,,0.00,meteohub,2013-07-08 06:52:00,
2013-07-08 02:53:00,67.1,39.2,30.32,WSW,248,2.0,7.0,36,0.00,,,0.00,meteohub,2013-07-08 06:53:00,
2013-07-08 02:54:00,67.1,39.2,30.32,SE,135,2.0,7.0,36,0.00,,,0.00,meteohub,2013-07-08 06:54:00,
2013-07-08 02:55:00,67.1,39.2,30.32,East,90,2.0,6.0,36,0.00,,,0.00,meteohub,2013-07-08 06:55:00,
2013-07-08 02:56:00,67.1,39.2,30.32,WSW,248,3.0,6.0,36,0.00,,,0.00,meteohub,2013-07-08 06:56:00,
2013-07-08 02:57:00,67.1,39.2,30.32,WSW,248,2.0,6.0,36,0.00,,,0.00,meteohub,2013-07-08 06:57:00,
2013-07-08 02:59:00,67.1,39.2,30.32,South,180,2.0,6.0,36,0.00,,,0.00,meteohub,2013-07-08 06:59:00,
2013-07-08 03:00:00,67.1,39.2,30.32,WSW,248,3.0,6.0,36,0.00,,,0.00,meteohub,2013-07-08 07:00:00,
2013-07-08 03:03:00,67.1,39.2,30.32,North,0,3.0,6.0,36,0.00,,,0.00,meteohub,2013-07-08 07:03:00,
2013-07-08 03:04:00,67.1,39.2,30.32,South,180,2.0,6.0,36,0.00,,,0.00,meteohub,2013-07-08 07:04:00,
2013-07-08 03:07:00,67.1,39.2,30.32,South,180,2.0,6.0,36,0.00,,,0.00,meteohub,2013-07-08 07:07:00,
2013-07-08 03:08:00,67.1,39.2,30.32,NW,315,2.0,6.0,36,0.00,,,0.00,meteohub,2013-07-08 07:08:00,
2013-07-08 03:10:00,67.1,39.2,30.32,West,270,3.0,6.0,36,0.00,,,0.00,meteohub,2013-07-08 07:10:00,
2013-07-08 03:11:00,67.1,39.2,30.32,East,90,6.0,8.0,36,0.00,,,0.00,meteohub,2013-07-08 07:11:00,
2013-07-08 03:12:00,67.1,39.2,30.32,SE,135,2.0,8.0,36,0.00,,,0.00,meteohub,2013-07-08 07:12:00,
2013-07-08 03:13:00,67.1,39.2,30.32,East,90,2.0,8.0,36,0.00,,,0.00,meteohub,2013-07-08 07:13:00,
2013-07-08 03:14:00,67.1,39.2,30.32,South,180,2.0,8.0,36,0.00,,,0.00,meteohub,2013-07-08 07:14:00,
2013-07-08 03:16:00,66.9,39.0,30.32,SE,135,2.0,8.0,36,0.00,,,0.00,meteohub,2013-07-08 07:16:00,
2013-07-08 03:17:00,66.9,39.0,30.32,SE,135,2.0,8.0,36,0.00,,,0.00,meteohub,2013-07-08 07:17:00,
2013-07-08 03:18:00,66.9,39.0,30.32,North,0,4.0,8.0,36,0.00,,,0.00,meteohub,2013-07-08 07:18:00,
2013-07-08 03:19:00,66.9,39.0,30.32,West,270,1.0,8.0,36,0.00,,,0.00,meteohub,2013-07-08 07:19:00,
2013-07-08 03:20:00,66.9,39.0,30.32,WSW,248,2.0,8.0,36,0.00,,,0.00,meteohub,2013-07-08 07:20:00,
2013-07-08 03:22:00,66.9,39.0,30.32,WSW,248,2.0,8.0,36,0.00,,,0.00,meteohub,2013-07-08 07:22:00,
2013-07-08 03:25:00,66.9,39.0,30.32,WSW,248,3.0,6.0,36,0.00,,,0.00,meteohub,2013-07-08 07:25:00,
2013-07-08 03:26:00,66.9,39.0,30.32,WSW,248,3.0,6.0,36,0.00,,,0.00,meteohub,2013-07-08 07:26:00,
2013-07-08 03:28:00,66.9,39.0,30.32,South,180,2.0,6.0,36,0.00,,,0.00,meteohub,2013-07-08 07:28:00,
2013-07-08 03:29:00,67.1,39.2,30.32,South,180,2.0,6.0,36,0.00,,,0.00,meteohub,2013-07-08 07:29:00,
2013-07-08 03:30:00,66.9,39.0,30.32,SSW,203,2.0,4.0,36,0.00,,,0.00,meteohub,2013-07-08 07:30:00,
2013-07-08 03:32:00,66.9,39.0,30.32,NE,45,3.0,4.0,36,0.00,,,0.00,meteohub,2013-07-08 07:32:00,
2013-07-08 03:33:00,67.1,39.2,30.32,WSW,248,1.0,4.0,36,0.00,,,0.00,meteohub,2013-07-08 07:33:00,
2013-07-08 03:34:00,67.1,39.2,30.32,WSW,248,1.0,4.0,36,0.00,,,0.00,meteohub,2013-07-08 07:34:00,
2013-07-08 03:36:00,66.9,39.0,30.32,West,270,2.0,4.0,36,0.00,,,0.00,meteohub,2013-07-08 07:36:00,
2013-07-08 03:37:00,66.9,39.0,30.32,North,0,3.0,4.0,36,0.00,,,0.00,meteohub,2013-07-08 07:37:00,
2013-07-08 03:38:00,66.9,39.7,30.32,West,270,3.0,4.0,37,0.00,,,0.00,meteohub,2013-07-08 07:38:00,
2013-07-08 03:39:00,66.9,39.0,30.32,West,270,4.0,4.0,36,0.00,,,0.00,meteohub,2013-07-08 07:39:00,
2013-07-08 03:41:00,66.9,39.0,30.32,South,180,2.0,4.0,36,0.00,,,0.00,meteohub,2013-07-08 07:41:00,
2013-07-08 03:42:00,66.9,39.0,30.32,NW,315,4.0,4.0,36,0.00,,,0.00,meteohub,2013-07-08 07:42:00,
2013-07-08 03:44:00,66.9,39.0,30.32,South,180,2.0,4.0,36,0.00,,,0.00,meteohub,2013-07-08 07:44:00,
2013-07-08 03:46:00,66.7,39.0,30.32,SE,135,1.0,4.0,36,0.00,,,0.00,meteohub,2013-07-08 07:46:00,
2013-07-08 03:48:00,66.9,39.0,30.32,SE,135,2.0,4.0,36,0.00,,,0.00,meteohub,2013-07-08 07:48:00,
2013-07-08 03:49:00,66.9,39.0,30.32,WSW,248,0.0,4.0,36,0.00,,,0.00,meteohub,2013-07-08 07:49:00,
2013-07-08 03:50:00,66.7,39.0,30.32,South,180,1.0,4.0,36,0.00,,,0.00,meteohub,2013-07-08 07:50:00,
2013-07-08 03:51:00,66.7,39.0,30.32,West,270,1.0,4.0,36,0.00,,,0.00,meteohub,2013-07-08 07:51:00,
2013-07-08 03:53:00,66.9,39.0,30.32,North,0,4.0,4.0,36,0.00,,,0.00,meteohub,2013-07-08 07:53:00,
2013-07-08 03:54:00,66.7,39.0,30.32,NW,315,2.0,4.0,36,0.00,,,0.00,meteohub,2013-07-08 07:54:00,
2013-07-08 03:56:00,66.7,39.6,30.32,NE,45,2.0,4.0,37,0.00,,,0.00,meteohub,2013-07-08 07:56:00,
2013-07-08 03:57:00,66.7,39.6,30.32,South,180,3.0,4.0,37,0.00,,,0.00,meteohub,2013-07-08 07:57:00,
2013-07-08 03:59:00,66.7,39.6,30.32,NW,315,2.0,4.0,37,0.00,,,0.00,meteohub,2013-07-08 07:59:00,
2013-07-08 04:00:00,66.7,39.0,30.32,WSW,248,2.0,4.0,36,0.00,,,0.00,meteohub,2013-07-08 08:00:00,
2013-07-08 04:02:00,66.7,39.6,30.32,NW,315,1.0,4.0,37,0.00,,,0.00,meteohub,2013-07-08 08:02:00,
2013-07-08 04:03:00,66.7,39.6,30.32,NW,315,2.0,4.0,37,0.00,,,0.00,meteohub,2013-07-08 08:03:00,
2013-07-08 04:04:00,66.7,39.6,30.32,SE,135,3.0,4.0,37,0.00,,,0.00,meteohub,2013-07-08 08:04:00,
2013-07-08 04:05:00,66.7,39.6,30.32,South,180,4.0,4.0,37,0.00,,,0.00,meteohub,2013-07-08 08:05:00,
2013-07-08 04:07:00,66.7,39.6,30.32,West,270,4.0,4.0,37,0.00,,,0.00,meteohub,2013-07-08 08:07:00,
2013-07-08 04:08:00,66.7,39.6,30.32,South,180,2.0,4.0,37,0.00,,,0.00,meteohub,2013-07-08 08:08:00,
2013-07-08 04:09:00,66.7,39.6,30.32,West,270,2.0,4.0,37,0.00,,,0.00,meteohub,2013-07-08 08:09:00,
2013-07-08 04:10:00,66.7,39.0,30.32,WSW,248,2.0,4.0,36,0.00,,,0.00,meteohub,2013-07-08 08:10:00,
2013-07-08 04:12:00,66.7,39.6,30.32,WSW,248,3.0,4.0,37,0.00,,,0.00,meteohub,2013-07-08 08:12:00,
2013-07-08 04:14:00,66.7,39.6,30.32,SE,135,2.0,4.0,37,0.00,,,0.00,meteohub,2013-07-08 08:14:00,
2013-07-08 04:15:00,66.7,39.6,30.32,WSW,248,3.0,4.0,37,0.00,,,0.00,meteohub,2013-07-08 08:15:00,
2013-07-08 04:17:00,66.7,39.6,30.32,NW,315,4.0,4.0,37,0.00,,,0.00,meteohub,2013-07-08 08:17:00,
2013-07-08 04:20:00,66.7,39.6,30.32,West,270,2.0,4.0,37,0.00,,,0.00,meteohub,2013-07-08 08:20:00,
2013-07-08 04:21:00,66.7,39.6,30.32,SE,135,2.0,4.0,37,0.00,,,0.00,meteohub,2013-07-08 08:21:00,
2013-07-08 04:23:00,66.7,39.6,30.32,West,270,6.0,6.0,37,0.00,,,0.00,meteohub,2013-07-08 08:23:00,
2013-07-08 04:25:00,66.7,39.6,30.32,South,180,5.0,5.0,37,0.00,,,0.00,meteohub,2013-07-08 08:25:00,
2013-07-08 04:26:00,66.7,39.6,30.32,South,180,2.0,4.0,37,0.00,,,0.00,meteohub,2013-07-08 08:26:00,
2013-07-08 04:27:00,66.7,39.6,30.32,South,180,2.0,4.0,37,0.00,,,0.00,meteohub,2013-07-08 08:27:00,
2013-07-08 04:28:00,66.7,39.6,30.32,SE,135,3.0,4.0,37,0.00,,,0.00,meteohub,2013-07-08 08:28:00,
2013-07-08 04:30:00,66.7,39.6,30.32,West,270,3.0,6.0,37,0.00,,,0.00,meteohub,2013-07-08 08:30:00,
2013-07-08 04:31:00,66.7,39.6,30.32,South,180,2.0,6.0,37,0.00,,,0.00,meteohub,2013-07-08 08:31:00,
2013-07-08 04:32:00,66.7,39.6,30.32,South,180,2.0,6.0,37,0.00,,,0.00,meteohub,2013-07-08 08:32:00,
2013-07-08 04:34:00,66.6,39.6,30.32,South,180,3.0,6.0,37,0.00,,,0.00,meteohub,2013-07-08 08:34:00,
2013-07-08 04:36:00,66.6,39.6,30.32,East,90,2.0,6.0,37,0.00,,,0.00,meteohub,2013-07-08 08:36:00,
2013-07-08 04:37:00,66.6,39.6,30.32,NE,45,2.0,6.0,37,0.00,,,0.00,meteohub,2013-07-08 08:37:00,
2013-07-08 04:39:00,66.6,39.6,30.32,SE,135,4.0,6.0,37,0.00,,,0.00,meteohub,2013-07-08 08:39:00,
2013-07-08 04:41:00,66.6,39.6,30.32,SE,135,2.0,6.0,37,0.00,,,0.00,meteohub,2013-07-08 08:41:00,
2013-07-08 04:42:00,66.6,39.6,30.32,WSW,248,2.0,6.0,37,0.00,,,0.00,meteohub,2013-07-08 08:42:00,
2013-07-08 04:45:00,66.6,39.6,30.32,WSW,248,2.0,6.0,37,0.00,,,0.00,meteohub,2013-07-08 08:45:00,
2013-07-08 04:46:00,66.6,39.6,30.32,West,270,1.0,6.0,37,0.00,,,0.00,meteohub,2013-07-08 08:46:00,
2013-07-08 04:47:00,66.6,39.6,30.32,West,270,1.0,6.0,37,0.00,,,0.00,meteohub,2013-07-08 08:47:00,
2013-07-08 04:49:00,66.6,39.6,30.32,WSW,248,1.0,6.0,37,0.00,,,0.00,meteohub,2013-07-08 08:49:00,
2013-07-08 04:51:00,66.6,39.6,30.32,SE,135,2.0,5.0,37,0.00,,,0.00,meteohub,2013-07-08 08:51:00,
2013-07-08 04:52:00,66.6,39.6,30.32,West,270,3.0,5.0,37,0.00,,,0.00,meteohub,2013-07-08 08:52:00,
2013-07-08 04:53:00,66.6,39.6,30.32,NW,315,1.0,5.0,37,0.00,,,0.00,meteohub,2013-07-08 08:53:00,
2013-07-08 04:55:00,66.6,39.6,30.32,WSW,248,1.0,5.0,37,0.00,,,0.00,meteohub,2013-07-08 08:55:00,
2013-07-08 04:56:00,66.6,39.6,30.32,WSW,248,4.0,5.0,37,0.00,,,0.00,meteohub,2013-07-08 08:56:00,
2013-07-08 04:57:00,66.6,39.6,30.32,South,180,2.0,5.0,37,0.00,,,0.00,meteohub,2013-07-08 08:57:00,
2013-07-08 04:58:00,66.6,39.6,30.32,South,180,2.0,5.0,37,0.00,,,0.00,meteohub,2013-07-08 08:58:00,
2013-07-08 05:02:00,66.6,39.6,30.32,NW,315,1.0,6.0,37,0.00,,,0.00,meteohub,2013-07-08 09:02:00,
2013-07-08 05:03:00,66.6,39.6,30.32,West,270,2.0,6.0,37,0.00,,,0.00,meteohub,2013-07-08 09:03:00,
2013-07-08 05:04:00,66.6,39.6,30.32,WSW,248,1.0,6.0,37,0.00,,,0.00,meteohub,2013-07-08 09:04:00,
2013-07-08 05:07:00,66.6,39.6,30.32,NW,315,2.0,6.0,37,0.00,,,0.00,meteohub,2013-07-08 09:07:00,
2013-07-08 05:08:00,66.6,39.6,30.32,WSW,248,2.0,6.0,37,0.00,,,0.00,meteohub,2013-07-08 09:08:00,
2013-07-08 05:10:00,66.6,39.6,30.32,WSW,248,2.0,6.0,37,0.00,,,0.00,meteohub,2013-07-08 09:10:00,
2013-07-08 05:14:00,66.6,39.6,30.32,WSW,248,3.0,4.0,37,0.00,,,0.00,meteohub,2013-07-08 09:14:00,
2013-07-08 05:15:00,66.6,39.6,30.32,West,270,2.0,4.0,37,0.00,,,0.00,meteohub,2013-07-08 09:15:00,
2013-07-08 05:16:00,66.6,39.6,30.32,West,270,2.0,3.0,37,0.00,,,0.00,meteohub,2013-07-08 09:16:00,
2013-07-08 05:20:00,66.6,39.6,30.32,WSW,248,2.0,3.0,37,0.00,,,0.00,meteohub,2013-07-08 09:20:00,
2013-07-08 05:21:00,66.6,39.6,30.32,South,180,2.0,3.0,37,0.00,,,0.00,meteohub,2013-07-08 09:21:00,
2013-07-08 05:22:00,66.4,39.4,30.33,East,90,4.0,4.0,37,0.00,,,0.00,meteohub,2013-07-08 09:22:00,
2013-07-08 05:25:00,66.4,39.4,30.32,South,180,2.0,3.0,37,0.00,,,0.00,meteohub,2013-07-08 09:25:00,
2013-07-08 05:26:00,66.4,38.7,30.33,WSW,248,2.0,6.0,36,0.00,,,0.00,meteohub,2013-07-08 09:26:00,
2013-07-08 05:27:00,66.4,39.4,30.33,South,180,2.0,6.0,37,0.00,,,0.00,meteohub,2013-07-08 09:27:00,
2013-07-08 05:28:00,66.4,39.4,30.33,South,180,2.0,6.0,37,0.00,,,0.00,meteohub,2013-07-08 09:28:00,
2013-07-08 05:32:00,66.4,38.7,30.33,West,270,2.0,6.0,36,0.00,,,0.00,meteohub,2013-07-08 09:32:00,
2013-07-08 05:33:00,66.4,38.7,30.33,West,270,2.0,6.0,36,0.00,,,0.00,meteohub,2013-07-08 09:33:00,
2013-07-08 05:34:00,66.2,38.5,30.32,West,270,4.0,6.0,36,0.00,,,0.00,meteohub,2013-07-08 09:34:00,
2013-07-08 05:37:00,66.2,38.5,30.32,South,180,6.0,6.0,36,0.00,,,0.00,meteohub,2013-07-08 09:37:00,
2013-07-08 05:38:00,66.2,38.5,30.32,South,180,6.0,6.0,36,0.00,,,0.00,meteohub,2013-07-08 09:38:00,
2013-07-08 05:39:00,66.2,38.5,30.33,NW,315,4.0,6.0,36,0.00,,,0.00,meteohub,2013-07-08 09:39:00,
2013-07-08 05:43:00,66.2,38.5,30.33,South,180,5.0,7.0,36,0.00,,,0.00,meteohub,2013-07-08 09:43:00,
2013-07-08 05:44:00,66.2,38.5,30.33,South,180,6.0,7.0,36,0.00,,,0.00,meteohub,2013-07-08 09:44:00,
2013-07-08 05:45:00,66.2,38.5,30.33,South,180,2.0,7.0,36,0.00,,,0.00,meteohub,2013-07-08 09:45:00,
2013-07-08 05:46:00,66.2,38.5,30.33,South,180,2.0,7.0,36,0.00,,,0.00,meteohub,2013-07-08 09:46:00,
2013-07-08 05:49:00,66.2,38.5,30.33,South,180,2.0,7.0,36,0.00,,,0.00,meteohub,2013-07-08 09:49:00,
2013-07-08 05:50:00,66.2,38.5,30.33,South,180,0.0,7.0,36,0.00,,,0.00,meteohub,2013-07-08 09:50:00,
2013-07-08 05:51:00,66.2,38.5,30.33,South,180,3.0,7.0,36,0.00,,,0.00,meteohub,2013-07-08 09:51:00,
2013-07-08 05:54:00,66.2,37.8,30.34,WSW,248,0.0,7.0,35,0.00,,,0.00,meteohub,2013-07-08 09:54:00,
2013-07-08 05:55:00,66.0,37.6,30.33,South,180,2.0,6.0,35,0.00,,,0.00,meteohub,2013-07-08 09:55:00,
2013-07-08 05:56:00,66.2,37.8,30.33,SE,135,2.0,6.0,35,0.00,,,0.00,meteohub,2013-07-08 09:56:00,
2013-07-08 05:59:00,66.2,37.8,30.34,WSW,248,1.0,6.0,35,0.00,,,0.00,meteohub,2013-07-08 09:59:00,
2013-07-08 06:01:00,66.0,37.6,30.33,WSW,248,1.0,4.0,35,0.00,,,0.00,meteohub,2013-07-08 10:01:00,
2013-07-08 06:03:00,66.0,37.6,30.34,WSW,248,2.0,4.0,35,0.00,,,0.00,meteohub,2013-07-08 10:03:00,
2013-07-08 06:05:00,66.0,37.6,30.34,South,180,1.0,3.0,35,0.00,,,0.00,meteohub,2013-07-08 10:05:00,
2013-07-08 06:06:00,66.0,37.6,30.33,WSW,248,5.0,5.0,35,0.00,,,0.00,meteohub,2013-07-08 10:06:00,
2013-07-08 06:07:00,66.0,37.6,30.34,WSW,248,2.0,3.0,35,0.00,,,0.00,meteohub,2013-07-08 10:07:00,
2013-07-08 06:08:00,66.0,37.6,30.33,WSW,248,2.0,3.0,35,0.00,,,0.00,meteohub,2013-07-08 10:08:00,
2013-07-08 06:10:00,66.0,37.6,30.34,WSW,248,2.0,5.0,35,0.00,,,0.00,meteohub,2013-07-08 10:10:00,
2013-07-08 06:12:00,66.0,37.6,30.34,East,90,2.0,5.0,35,0.00,,,0.00,meteohub,2013-07-08 10:12:00,
2013-07-08 06:13:00,66.0,37.6,30.34,South,180,2.0,5.0,35,0.00,,,0.00,meteohub,2013-07-08 10:13:00,
2013-07-08 06:15:00,66.0,37.6,30.34,WSW,248,4.0,5.0,35,0.00,,,0.00,meteohub,2013-07-08 10:15:00,
2013-07-08 06:18:00,65.8,37.4,30.34,WSW,248,2.0,5.0,35,0.00,,,0.00,meteohub,2013-07-08 10:18:00,
2013-07-08 06:21:00,66.0,37.6,30.33,East,90,2.0,5.0,35,0.00,,,0.00,meteohub,2013-07-08 10:21:00,
2013-07-08 06:23:00,66.0,36.9,30.34,SSE,158,4.0,5.0,34,0.00,,,0.00,meteohub,2013-07-08 10:23:00,
2013-07-08 06:24:00,66.0,36.9,30.34,West,270,2.0,5.0,34,0.00,,,0.00,meteohub,2013-07-08 10:24:00,
2013-07-08 06:26:00,66.0,36.9,30.33,WSW,248,4.0,4.0,34,0.00,,,0.00,meteohub,2013-07-08 10:26:00,
2013-07-08 06:27:00,66.0,36.9,30.33,WSW,248,2.0,4.0,34,0.00,,,0.00,meteohub,2013-07-08 10:27:00,
2013-07-08 06:28:00,66.0,36.9,30.34,WSW,248,4.0,4.0,34,0.00,,,0.00,meteohub,2013-07-08 10:28:00,
2013-07-08 06:29:00,66.0,36.9,30.33,East,90,2.0,4.0,34,0.00,,,0.00,meteohub,2013-07-08 10:29:00,
2013-07-08 06:32:00,66.2,37.0,30.34,WSW,248,2.0,4.0,34,0.00,,,0.00,meteohub,2013-07-08 10:32:00,
2013-07-08 06:33:00,66.2,37.0,30.33,West,270,4.0,4.0,34,0.00,,,0.00,meteohub,2013-07-08 10:33:00,
2013-07-08 06:34:00,66.2,37.0,30.33,WSW,248,2.0,4.0,34,0.00,,,0.00,meteohub,2013-07-08 10:34:00,
2013-07-08 06:37:00,66.2,37.0,30.33,WSW,248,1.0,4.0,34,0.00,,,0.00,meteohub,2013-07-08 10:37:00,
2013-07-08 06:38:00,66.2,37.0,30.33,WSW,248,1.0,4.0,34,0.00,,,0.00,meteohub,2013-07-08 10:38:00,
2013-07-08 06:39:00,66.2,37.0,30.33,South,180,4.0,4.0,34,0.00,,,0.00,meteohub,2013-07-08 10:39:00,
2013-07-08 06:40:00,66.2,37.0,30.33,West,270,4.0,4.0,34,0.00,,,0.00,meteohub,2013-07-08 10:40:00,
2013-07-08 06:43:00,66.2,36.3,30.34,South,180,2.0,4.0,33,0.00,,,0.00,meteohub,2013-07-08 10:43:00,
2013-07-08 06:44:00,66.2,37.0,30.34,South,180,2.0,4.0,34,0.00,,,0.00,meteohub,2013-07-08 10:44:00,
2013-07-08 06:45:00,66.2,36.3,30.34,South,180,2.0,4.0,33,0.00,,,0.00,meteohub,2013-07-08 10:45:00,
2013-07-08 06:48:00,66.4,37.2,30.33,East,90,0.0,4.0,34,0.00,,,0.00,meteohub,2013-07-08 10:48:00,
2013-07-08 06:49:00,66.4,37.2,30.34,WSW,248,2.0,4.0,34,0.00,,,0.00,meteohub,2013-07-08 10:49:00,
2013-07-08 06:50:00,66.4,36.3,30.33,South,180,1.0,4.0,33,0.00,,,0.00,meteohub,2013-07-08 10:50:00,
2013-07-08 06:53:00,66.6,36.5,30.34,WSW,248,4.0,4.0,33,0.00,,,0.00,meteohub,2013-07-08 10:53:00,
2013-07-08 06:55:00,66.6,36.5,30.34,South,180,2.0,4.0,33,0.00,,,0.00,meteohub,2013-07-08 10:55:00,
2013-07-08 06:58:00,66.4,36.3,30.34,South,180,2.0,4.0,33,0.00,,,0.00,meteohub,2013-07-08 10:58:00,
2013-07-08 06:59:00,66.4,36.3,30.34,NW,315,2.0,4.0,33,0.00,,,0.00,meteohub,2013-07-08 10:59:00,
2013-07-08 07:00:00,66.4,36.3,30.34,SE,135,3.0,4.0,33,0.00,,,0.00,meteohub,2013-07-08 11:00:00,
2013-07-08 07:01:00,66.4,36.3,30.34,WSW,248,3.0,4.0,33,0.00,,,0.00,meteohub,2013-07-08 11:01:00,
2013-07-08 07:04:00,66.4,36.3,30.34,SE,135,2.0,4.0,33,0.00,,,0.00,meteohub,2013-07-08 11:04:00,
2013-07-08 07:05:00,66.4,36.3,30.34,SE,135,1.0,4.0,33,0.00,,,0.00,meteohub,2013-07-08 11:05:00,
2013-07-08 07:06:00,66.4,36.3,30.34,SE,135,1.0,4.0,33,0.00,,,0.00,meteohub,2013-07-08 11:06:00,
2013-07-08 07:07:00,66.4,36.3,30.34,South,180,1.0,4.0,33,0.00,,,0.00,meteohub,2013-07-08 11:07:00,
2013-07-08 07:09:00,66.6,36.5,30.34,SE,135,2.0,4.0,33,0.00,,,0.00,meteohub,2013-07-08 11:09:00,
2013-07-08 07:10:00,66.6,36.5,30.34,West,270,2.0,3.0,33,0.00,,,0.00,meteohub,2013-07-08 11:10:00,
2013-07-08 07:12:00,66.6,36.5,30.34,NW,315,3.0,3.0,33,0.00,,,0.00,meteohub,2013-07-08 11:12:00,
2013-07-08 07:13:00,66.6,36.5,30.34,WSW,248,1.0,3.0,33,0.00,,,0.00,meteohub,2013-07-08 11:13:00,
2013-07-08 07:14:00,66.6,36.5,30.35,South,180,4.0,4.0,33,0.00,,,0.00,meteohub,2013-07-08 11:14:00,
2013-07-08 07:15:00,66.6,36.5,30.35,South,180,4.0,4.0,33,0.00,,,0.00,meteohub,2013-07-08 11:15:00,
2013-07-08 07:18:00,66.6,36.5,30.34,South,180,3.0,3.0,33,0.00,,,0.00,meteohub,2013-07-08 11:18:00,
2013-07-08 07:19:00,66.6,35.8,30.34,East,90,2.0,3.0,32,0.00,,,0.00,meteohub,2013-07-08 11:19:00,
2013-07-08 07:20:00,66.6,35.8,30.34,SE,135,2.0,4.0,32,0.00,,,0.00,meteohub,2013-07-08 11:20:00,
2013-07-08 07:22:00,66.6,35.8,30.34,WSW,248,2.0,4.0,32,0.00,,,0.00,meteohub,2013-07-08 11:22:00,
2013-07-08 07:23:00,66.6,35.8,30.34,NE,45,3.0,4.0,32,0.00,,,0.00,meteohub,2013-07-08 11:23:00,
2013-07-08 07:25:00,66.6,35.8,30.34,WSW,248,2.0,4.0,32,0.00,,,0.00,meteohub,2013-07-08 11:25:00,
2013-07-08 07:26:00,66.6,35.8,30.34,South,180,2.0,4.0,32,0.00,,,0.00,meteohub,2013-07-08 11:26:00,
2013-07-08 07:27:00,66.6,35.8,30.33,South,180,2.0,4.0,32,0.00,,,0.00,meteohub,2013-07-08 11:27:00,
2013-07-08 07:28:00,66.6,35.8,30.34,South,180,1.0,4.0,32,0.00,,,0.00,meteohub,2013-07-08 11:28:00,
2013-07-08 07:29:00,66.6,35.8,30.34,South,180,3.0,4.0,32,0.00,,,0.00,meteohub,2013-07-08 11:29:00,
2013-07-08 07:30:00,66.7,36.0,30.34,WSW,248,2.0,4.0,32,0.00,,,0.00,meteohub,2013-07-08 11:30:00,
2013-07-08 07:31:00,66.7,36.0,30.33,WSW,248,1.0,4.0,32,0.00,,,0.00,meteohub,2013-07-08 11:31:00,
2013-07-08 07:32:00,66.7,36.0,30.33,South,180,2.0,4.0,32,0.00,,,0.00,meteohub,2013-07-08 11:32:00,
2013-07-08 07:33:00,66.6,35.8,30.33,WSW,248,1.0,4.0,32,0.00,,,0.00,meteohub,2013-07-08 11:33:00,
2013-07-08 07:35:00,66.6,35.8,30.34,SE,135,2.0,4.0,32,0.00,,,0.00,meteohub,2013-07-08 11:35:00,
2013-07-08 07:36:00,66.6,35.8,30.34,SE,135,2.0,4.0,32,0.00,,,0.00,meteohub,2013-07-08 11:36:00,
2013-07-08 07:38:00,66.6,35.8,30.34,WSW,248,0.0,4.0,32,0.00,,,0.00,meteohub,2013-07-08 11:38:00,
2013-07-08 07:39:00,66.6,35.8,30.34,WSW,248,0.0,4.0,32,0.00,,,0.00,meteohub,2013-07-08 11:39:00,
2013-07-08 07:40:00,66.6,35.8,30.34,SE,135,2.0,3.0,32,0.00,,,0.00,meteohub,2013-07-08 11:40:00,
2013-07-08 07:41:00,66.7,36.0,30.34,NE,45,2.0,3.0,32,0.00,,,0.00,meteohub,2013-07-08 11:41:00,
2013-07-08 07:44:00,66.7,36.0,30.34,South,180,2.0,3.0,32,0.00,,,0.00,meteohub,2013-07-08 11:44:00,
2013-07-08 07:46:00,66.7,36.0,30.34,South,180,0.0,3.0,32,0.00,,,0.00,meteohub,2013-07-08 11:46:00,
2013-07-08 07:47:00,66.7,36.0,30.35,South,180,3.0,3.0,32,0.00,,,0.00,meteohub,2013-07-08 11:47:00,
2013-07-08 07:48:00,66.7,36.0,30.34,South,180,3.0,3.0,32,0.00,,,0.00,meteohub,2013-07-08 11:48:00,
2013-07-08 07:49:00,66.7,36.0,30.35,WSW,248,3.0,3.0,32,0.00,,,0.00,meteohub,2013-07-08 11:49:00,
2013-07-08 07:50:00,66.7,36.0,30.34,NE,45,2.0,3.0,32,0.00,,,0.00,meteohub,2013-07-08 11:50:00,
2013-07-08 07:52:00,66.7,36.0,30.35,South,180,0.0,3.0,32,0.00,,,0.00,meteohub,2013-07-08 11:52:00,
2013-07-08 07:53:00,66.7,36.0,30.35,South,180,0.0,3.0,32,0.00,,,0.00,meteohub,2013-07-08 11:53:00,
2013-07-08 07:54:00,66.7,36.0,30.34,WSW,248,2.0,3.0,32,0.00,,,0.00,meteohub,2013-07-08 11:54:00,
2013-07-08 07:55:00,66.6,35.8,30.34,South,180,2.0,3.0,32,0.00,,,0.00,meteohub,2013-07-08 11:55:00,
2013-07-08 07:57:00,66.6,35.8,30.35,South,180,2.0,3.0,32,0.00,,,0.00,meteohub,2013-07-08 11:57:00,
2013-07-08 07:58:00,66.6,35.8,30.34,WSW,248,2.0,3.0,32,0.00,,,0.00,meteohub,2013-07-08 11:58:00,
2013-07-08 07:59:00,66.6,35.8,30.35,WSW,248,2.0,3.0,32,0.00,,,0.00,meteohub,2013-07-08 11:59:00,
2013-07-08 08:00:00,66.6,35.8,30.35,WSW,248,2.0,3.0,32,0.00,,,0.00,meteohub,2013-07-08 12:00:00,
2013-07-08 08:03:00,66.6,35.8,30.35,West,270,3.0,3.0,32,0.00,,,0.00,meteohub,2013-07-08 12:03:00,
2013-07-08 08:04:00,66.6,35.8,30.35,South,180,2.0,3.0,32,0.00,,,0.00,meteohub,2013-07-08 12:04:00,
2013-07-08 08:05:00,66.6,35.8,30.35,WSW,248,2.0,3.0,32,0.00,,,0.00,meteohub,2013-07-08 12:05:00,
2013-07-08 08:06:00,66.7,36.0,30.35,North,0,4.0,4.0,32,0.00,,,0.00,meteohub,2013-07-08 12:06:00,
2013-07-08 08:09:00,66.7,36.0,30.35,WSW,248,4.0,4.0,32,0.00,,,0.00,meteohub,2013-07-08 12:09:00,
2013-07-08 08:10:00,66.7,36.0,30.35,South,180,4.0,4.0,32,0.00,,,0.00,meteohub,2013-07-08 12:10:00,
2013-07-08 08:12:00,66.9,36.1,30.35,SE,135,3.0,5.0,32,0.00,,,0.00,meteohub,2013-07-08 12:12:00,
2013-07-08 08:13:00,67.1,35.4,30.35,South,180,4.0,5.0,31,0.00,,,0.00,meteohub,2013-07-08 12:13:00,
2013-07-08 08:14:00,67.1,35.4,30.35,NW,315,3.0,5.0,31,0.00,,,0.00,meteohub,2013-07-08 12:14:00,
2013-07-08 08:15:00,67.3,35.6,30.35,West,270,2.0,5.0,31,0.00,,,0.00,meteohub,2013-07-08 12:15:00,
2013-07-08 08:18:00,67.3,34.0,30.35,West,270,5.0,5.0,29,0.00,,,0.00,meteohub,2013-07-08 12:18:00,
2013-07-08 08:20:00,67.3,34.0,30.35,SE,135,3.0,7.0,29,0.00,,,0.00,meteohub,2013-07-08 12:20:00,
2013-07-08 08:21:00,67.3,34.0,30.35,SW,225,2.0,7.0,29,0.00,,,0.00,meteohub,2013-07-08 12:21:00,
2013-07-08 08:23:00,67.1,32.9,30.35,East,90,6.0,7.0,28,0.00,,,0.00,meteohub,2013-07-08 12:23:00,
2013-07-08 08:24:00,67.1,32.0,30.35,SE,135,3.0,7.0,27,0.00,,,0.00,meteohub,2013-07-08 12:24:00,
2013-07-08 08:26:00,66.9,30.9,30.35,SE,135,4.0,9.0,26,0.00,,,0.00,meteohub,2013-07-08 12:26:00,
2013-07-08 08:30:00,66.7,29.8,30.36,SSE,158,8.0,9.0,25,0.00,,,0.00,meteohub,2013-07-08 12:30:00,
2013-07-08 08:31:00,66.7,29.8,30.36,South,180,3.0,9.0,25,0.00,,,0.00,meteohub,2013-07-08 12:31:00,
2013-07-08 08:32:00,66.7,29.8,30.36,WSW,248,4.0,9.0,25,0.00,,,0.00,meteohub,2013-07-08 12:32:00,
2013-07-08 08:33:00,66.7,29.8,30.36,WSW,248,4.0,9.0,25,0.00,,,0.00,meteohub,2013-07-08 12:33:00,
2013-07-08 08:37:00,66.9,28.9,30.36,East,90,4.0,9.0,24,0.00,,,0.00,meteohub,2013-07-08 12:37:00,
2013-07-08 08:38:00,66.9,28.9,30.36,WSW,248,2.0,9.0,24,0.00,,,0.00,meteohub,2013-07-08 12:38:00,
2013-07-08 08:39:00,66.9,28.9,30.36,South,180,2.0,9.0,24,0.00,,,0.00,meteohub,2013-07-08 12:39:00,
2013-07-08 08:42:00,67.1,29.1,30.36,SE,135,4.0,8.0,24,0.00,,,0.00,meteohub,2013-07-08 12:42:00,
2013-07-08 08:43:00,67.3,28.2,30.36,WSW,248,4.0,8.0,23,0.00,,,0.00,meteohub,2013-07-08 12:43:00,
2013-07-08 08:44:00,67.5,28.4,30.36,North,0,2.0,8.0,23,0.00,,,0.00,meteohub,2013-07-08 12:44:00,
2013-07-08 08:46:00,67.5,28.4,30.35,West,270,2.0,7.0,23,0.00,,,0.00,meteohub,2013-07-08 12:46:00,
2013-07-08 08:48:00,67.6,28.6,30.36,WSW,248,2.0,7.0,23,0.00,,,0.00,meteohub,2013-07-08 12:48:00,
2013-07-08 08:50:00,68.0,27.7,30.36,South,180,2.0,7.0,22,0.00,,,0.00,meteohub,2013-07-08 12:50:00,
2013-07-08 08:51:00,68.4,28.0,30.35,South,180,1.0,7.0,22,0.00,,,0.00,meteohub,2013-07-08 12:51:00,
2013-07-08 08:52:00,68.7,27.1,30.36,NE,45,2.0,7.0,21,0.00,,,0.00,meteohub,2013-07-08 12:52:00,
2013-07-08 08:53:00,68.9,27.3,30.35,South,180,2.0,7.0,21,0.00,,,0.00,meteohub,2013-07-08 12:53:00,
2013-07-08 08:57:00,69.4,25.3,30.35,North,0,3.0,7.0,19,0.00,,,0.00,meteohub,2013-07-08 12:57:00,
2013-07-08 08:59:00,69.6,24.3,30.36,West,270,4.0,7.0,18,0.00,,,0.00,meteohub,2013-07-08 12:59:00,
2013-07-08 09:03:00,70.0,21.7,30.35,NE,45,3.0,4.0,16,0.00,,,0.00,meteohub,2013-07-08 13:03:00,
2013-07-08 09:04:00,70.9,22.5,30.36,WSW,248,2.0,4.0,16,0.00,,,0.00,meteohub,2013-07-08 13:04:00,
2013-07-08 09:09:00,71.6,71.6,30.35,SE,135,4.0,4.0,0,0.00,,,0.00,meteohub,2013-07-08 13:09:00,
2013-07-08 09:10:00,71.6,71.6,30.35,SE,135,4.0,4.0,0,0.00,,,0.00,meteohub,2013-07-08 13:10:00,
2013-07-08 09:12:00,71.4,71.4,30.36,WSW,248,5.0,5.0,0,0.00,,,0.00,meteohub,2013-07-08 13:12:00,
2013-07-08 09:14:00,71.4,71.4,30.36,West,270,4.0,4.0,0,0.00,,,0.00,meteohub,2013-07-08 13:14:00,
2013-07-08 09:15:00,71.4,71.4,30.36,West,270,4.0,4.0,0,0.00,,,0.00,meteohub,2013-07-08 13:15:00,
2013-07-08 09:20:00,71.6,71.6,30.36,WSW,248,3.0,7.0,0,0.00,,,0.00,meteohub,2013-07-08 13:20:00,
2013-07-08 09:21:00,71.4,71.4,30.36,West,270,3.0,7.0,0,0.00,,,0.00,meteohub,2013-07-08 13:21:00,
2013-07-08 09:22:00,71.4,71.4,30.36,West,270,4.0,7.0,0,0.00,,,0.00,meteohub,2013-07-08 13:22:00,
2013-07-08 09:25:00,71.4,71.4,30.36,South,180,3.0,7.0,0,0.00,,,0.00,meteohub,2013-07-08 13:25:00,
2013-07-08 09:26:00,71.8,71.8,30.36,WSW,248,9.0,9.0,0,0.00,,,0.00,meteohub,2013-07-08 13:26:00,
2013-07-08 09:28:00,72.3,72.3,30.36,NW,315,2.0,7.0,0,0.00,,,0.00,meteohub,2013-07-08 13:28:00,
2013-07-08 09:29:00,72.3,72.3,30.36,NW,315,2.0,7.0,0,0.00,,,0.00,meteohub,2013-07-08 13:29:00,
2013-07-08 09:32:00,72.5,72.5,30.36,South,180,8.0,9.0,0,0.00,,,0.00,meteohub,2013-07-08 13:32:00,
2013-07-08 09:33:00,72.5,72.5,30.36,South,180,8.0,9.0,0,0.00,,,0.00,meteohub,2013-07-08 13:33:00,
2013-07-08 09:34:00,72.1,72.1,30.36,South,180,4.0,9.0,0,0.00,,,0.00,meteohub,2013-07-08 13:34:00,
2013-07-08 09:35:00,72.1,72.1,30.36,South,180,4.0,9.0,0,0.00,,,0.00,meteohub,2013-07-08 13:35:00,
2013-07-08 09:37:00,72.0,72.0,30.36,WSW,248,3.0,9.0,0,0.00,,,0.00,meteohub,2013-07-08 13:37:00,
2013-07-08 09:38:00,72.0,72.0,30.36,NE,45,3.0,9.0,0,0.00,,,0.00,meteohub,2013-07-08 13:38:00,
2013-07-08 09:39:00,72.0,72.0,30.36,WSW,248,7.0,9.0,0,0.00,,,0.00,meteohub,2013-07-08 13:39:00,
2013-07-08 09:41:00,71.8,71.8,30.36,WSW,248,5.0,9.0,0,0.00,,,0.00,meteohub,2013-07-08 13:41:00,
2013-07-08 09:42:00,72.0,72.0,30.36,SE,135,4.0,9.0,0,0.00,,,0.00,meteohub,2013-07-08 13:42:00,
2013-07-08 09:44:00,72.3,72.3,30.36,West,270,3.0,9.0,0,0.00,,,0.00,meteohub,2013-07-08 13:44:00,
2013-07-08 09:45:00,72.5,72.5,30.37,North,0,4.0,9.0,0,0.00,,,0.00,meteohub,2013-07-08 13:45:00,
2013-07-08 09:47:00,72.9,72.9,30.37,South,180,2.0,8.0,0,0.00,,,0.00,meteohub,2013-07-08 13:47:00,
2013-07-08 09:48:00,72.9,72.9,30.37,South,180,2.0,8.0,0,0.00,,,0.00,meteohub,2013-07-08 13:48:00,
2013-07-08 09:49:00,73.2,73.2,30.36,NE,45,4.0,8.0,0,0.00,,,0.00,meteohub,2013-07-08 13:49:00,
2013-07-08 09:50:00,73.2,73.2,30.36,NE,45,4.0,8.0,0,0.00,,,0.00,meteohub,2013-07-08 13:50:00,
2013-07-08 09:51:00,73.2,73.2,30.36,WSW,248,3.0,8.0,0,0.00,,,0.00,meteohub,2013-07-08 13:51:00,
2013-07-08 09:53:00,73.4,73.4,30.36,NW,315,4.0,8.0,0,0.00,,,0.00,meteohub,2013-07-08 13:53:00,
2013-07-08 09:54:00,73.2,73.2,30.36,NW,315,2.0,8.0,0,0.00,,,0.00,meteohub,2013-07-08 13:54:00,
2013-07-08 09:55:00,73.0,73.0,30.36,SE,135,7.0,8.0,0,0.00,,,0.00,meteohub,2013-07-08 13:55:00,
2013-07-08 09:56:00,72.9,72.9,30.36,WSW,248,2.0,8.0,0,0.00,,,0.00,meteohub,2013-07-08 13:56:00,
2013-07-08 09:58:00,72.7,72.7,30.37,NE,45,3.0,8.0,0,0.00,,,0.00,meteohub,2013-07-08 13:58:00,
2013-07-08 10:01:00,72.3,72.3,30.36,SE,135,6.0,7.0,0,0.00,,,0.00,meteohub,2013-07-08 14:01:00,
2013-07-08 10:03:00,72.5,72.5,30.36,North,0,4.0,7.0,0,0.00,,,0.00,meteohub,2013-07-08 14:03:00,
2013-07-08 10:06:00,73.0,73.0,30.36,NW,315,3.0,7.0,0,0.00,,,0.00,meteohub,2013-07-08 14:06:00,
2013-07-08 10:09:00,73.0,73.0,30.37,North,0,2.0,7.0,0,0.00,,,0.00,meteohub,2013-07-08 14:09:00,
2013-07-08 10:10:00,73.2,73.2,30.37,North,0,6.0,7.0,0,0.00,,,0.00,meteohub,2013-07-08 14:10:00,
2013-07-08 10:11:00,73.2,73.2,30.37,NW,315,3.0,7.0,0,0.00,,,0.00,meteohub,2013-07-08 14:11:00,
2013-07-08 10:13:00,73.0,73.0,30.36,NW,315,3.0,7.0,0,0.00,,,0.00,meteohub,2013-07-08 14:13:00,
2013-07-08 10:14:00,73.0,73.0,30.37,South,180,5.0,7.0,0,0.00,,,0.00,meteohub,2013-07-08 14:14:00,
2013-07-08 10:15:00,72.7,72.7,30.37,NW,315,3.0,6.0,0,0.00,,,0.00,meteohub,2013-07-08 14:15:00,
2013-07-08 10:18:00,72.1,72.1,30.37,SE,135,4.0,6.0,0,0.00,,,0.00,meteohub,2013-07-08 14:18:00,
2013-07-08 10:19:00,71.8,71.8,30.37,West,270,3.0,6.0,0,0.00,,,0.00,meteohub,2013-07-08 14:19:00,
2013-07-08 10:20:00,71.6,71.6,30.37,SE,135,3.0,6.0,0,0.00,,,0.00,meteohub,2013-07-08 14:20:00,
2013-07-08 10:24:00,71.4,71.4,30.37,NE,45,4.0,6.0,0,0.00,,,0.00,meteohub,2013-07-08 14:24:00,
2013-07-08 10:25:00,71.6,71.6,30.37,NE,45,3.0,6.0,0,0.00,,,0.00,meteohub,2013-07-08 14:25:00,
2013-07-08 10:26:00,71.6,71.6,30.37,NE,45,4.0,6.0,0,0.00,,,0.00,meteohub,2013-07-08 14:26:00,
2013-07-08 10:29:00,71.8,71.8,30.37,South,180,7.0,7.0,0,0.00,,,0.00,meteohub,2013-07-08 14:29:00,
2013-07-08 10:30:00,71.8,71.8,30.37,WSW,248,4.0,5.0,0,0.00,,,0.00,meteohub,2013-07-08 14:30:00,
2013-07-08 10:32:00,71.6,71.6,30.37,WSW,248,3.0,5.0,0,0.00,,,0.00,meteohub,2013-07-08 14:32:00,
2013-07-08 10:34:00,71.2,71.2,30.36,NW,315,6.0,6.0,0,0.00,,,0.00,meteohub,2013-07-08 14:34:00,
2013-07-08 10:35:00,71.1,71.1,30.37,South,180,4.0,7.0,0,0.00,,,0.00,meteohub,2013-07-08 14:35:00,
2013-07-08 10:36:00,71.1,71.1,30.36,NE,45,4.0,7.0,0,0.00,,,0.00,meteohub,2013-07-08 14:36:00,
2013-07-08 10:37:00,70.9,70.9,30.37,SE,135,3.0,7.0,0,0.00,,,0.00,meteohub,2013-07-08 14:37:00,
2013-07-08 10:39:00,71.2,71.2,30.36,WSW,248,3.0,7.0,0,0.00,,,0.00,meteohub,2013-07-08 14:39:00,
2013-07-08 10:42:00,72.0,72.0,30.36,South,180,2.0,7.0,0,0.00,,,0.00,meteohub,2013-07-08 14:42:00,
2013-07-08 10:43:00,72.5,72.5,30.37,South,180,1.0,7.0,0,0.00,,,0.00,meteohub,2013-07-08 14:43:00,
2013-07-08 10:45:00,73.2,73.2,30.36,SE,135,2.0,6.0,0,0.00,,,0.00,meteohub,2013-07-08 14:45:00,
2013-07-08 10:48:00,73.8,73.8,30.37,WSW,248,4.0,6.0,0,0.00,,,0.00,meteohub,2013-07-08 14:48:00,
2013-07-08 10:50:00,73.9,73.9,30.37,South,180,3.0,6.0,0,0.00,,,0.00,meteohub,2013-07-08 14:50:00,
2013-07-08 10:52:00,74.5,74.5,30.37,South,180,3.0,6.0,0,0.00,,,0.00,meteohub,2013-07-08 14:52:00,
2013-07-08 10:53:00,74.7,74.7,30.37,NE,45,3.0,6.0,0,0.00,,,0.00,meteohub,2013-07-08 14:53:00,
2013-07-08 10:55:00,74.7,74.7,30.37,West,270,4.0,6.0,0,0.00,,,0.00,meteohub,2013-07-08 14:55:00,
2013-07-08 10:56:00,74.5,74.5,30.37,West,270,8.0,8.0,0,0.00,,,0.00,meteohub,2013-07-08 14:56:00,
2013-07-08 10:57:00,73.9,73.9,30.37,South,180,8.0,8.0,0,0.00,,,0.00,meteohub,2013-07-08 14:57:00,
2013-07-08 10:59:00,73.6,73.6,30.37,WSW,248,4.0,6.0,0,0.00,,,0.00,meteohub,2013-07-08 14:59:00,
2013-07-08 11:00:00,73.2,73.2,30.37,NE,45,4.0,8.0,0,0.00,,,0.00,meteohub,2013-07-08 15:00:00,
2013-07-08 11:01:00,73.2,73.2,30.37,NE,45,4.0,8.0,0,0.00,,,0.00,meteohub,2013-07-08 15:01:00,
2013-07-08 11:03:00,73.2,73.2,30.37,North,0,2.0,8.0,0,0.00,,,0.00,meteohub,2013-07-08 15:03:00,
2013-07-08 11:04:00,73.6,73.6,30.37,NE,45,3.0,8.0,0,0.00,,,0.00,meteohub,2013-07-08 15:04:00,
2013-07-08 11:06:00,73.9,73.9,30.36,West,270,5.0,8.0,0,0.00,,,0.00,meteohub,2013-07-08 15:06:00,
2013-07-08 11:10:00,74.8,74.8,30.36,WSW,248,3.0,8.0,0,0.00,,,0.00,meteohub,2013-07-08 15:10:00,
2013-07-08 11:11:00,75.0,75.0,30.36,WSW,248,3.0,8.0,0,0.00,,,0.00,meteohub,2013-07-08 15:11:00,
2013-07-08 11:12:00,75.2,75.2,30.36,West,270,4.0,8.0,0,0.00,,,0.00,meteohub,2013-07-08 15:12:00,
2013-07-08 11:15:00,75.6,75.6,30.36,West,270,6.0,8.0,0,0.00,,,0.00,meteohub,2013-07-08 15:15:00,
2013-07-08 11:16:00,75.6,75.6,30.36,NW,315,4.0,6.0,0,0.00,,,0.00,meteohub,2013-07-08 15:16:00,
2013-07-08 11:17:00,75.7,75.7,30.37,West,270,4.0,6.0,0,0.00,,,0.00,meteohub,2013-07-08 15:17:00,
2013-07-08 11:18:00,75.7,75.7,30.37,West,270,4.0,6.0,0,0.00,,,0.00,meteohub,2013-07-08 15:18:00,
2013-07-08 11:20:00,75.7,75.7,30.37,West,270,4.0,6.0,0,0.00,,,0.00,meteohub,2013-07-08 15:20:00,
2013-07-08 11:21:00,75.7,75.7,30.37,West,270,4.0,6.0,0,0.00,,,0.00,meteohub,2013-07-08 15:21:00,
2013-07-08 11:22:00,75.7,75.7,30.37,West,270,4.0,6.0,0,0.00,,,0.00,meteohub,2013-07-08 15:22:00,
2013-07-08 11:23:00,75.7,75.7,30.37,West,270,4.0,6.0,0,0.00,,,0.00,meteohub,2013-07-08 15:23:00,
2013-07-08 11:24:00,75.7,75.7,30.37,West,270,4.0,6.0,0,0.00,,,0.00,meteohub,2013-07-08 15:24:00,
2013-07-08 11:25:00,75.7,75.7,30.37,West,270,4.0,6.0,0,0.00,,,0.00,meteohub,2013-07-08 15:25:00,
2013-07-08 11:27:00,75.4,75.4,30.36,WSW,248,3.0,6.0,0,0.00,,,0.00,meteohub,2013-07-08 15:27:00,
2013-07-08 11:29:00,75.4,75.4,30.37,NW,315,6.0,6.0,0,0.00,,,0.00,meteohub,2013-07-08 15:29:00,
2013-07-08 11:30:00,75.4,75.4,30.37,WSW,248,9.0,9.0,0,0.00,,,0.00,meteohub,2013-07-08 15:30:00,
2013-07-08 11:31:00,75.2,75.2,30.37,SSW,203,5.0,6.0,0,0.00,,,0.00,meteohub,2013-07-08 15:31:00,
2013-07-08 11:33:00,75.0,75.0,30.37,West,270,4.0,6.0,0,0.00,,,0.00,meteohub,2013-07-08 15:33:00,
2013-07-08 11:35:00,74.8,74.8,30.37,South,180,2.0,6.0,0,0.00,,,0.00,meteohub,2013-07-08 15:35:00,
2013-07-08 11:37:00,75.0,75.0,30.37,South,180,4.0,9.0,0,0.00,,,0.00,meteohub,2013-07-08 15:37:00,
2013-07-08 11:38:00,75.2,75.2,30.37,West,270,5.0,9.0,0,0.00,,,0.00,meteohub,2013-07-08 15:38:00,
2013-07-08 11:39:00,75.2,75.2,30.37,South,180,5.0,9.0,0,0.00,,,0.00,meteohub,2013-07-08 15:39:00,
2013-07-08 11:40:00,75.6,75.6,30.36,North,0,4.0,9.0,0,0.00,,,0.00,meteohub,2013-07-08 15:40:00,
2013-07-08 11:42:00,75.7,75.7,30.37,SE,135,6.0,9.0,0,0.00,,,0.00,meteohub,2013-07-08 15:42:00,
2013-07-08 11:44:00,76.1,76.1,30.37,NW,315,4.0,9.0,0,0.00,,,0.00,meteohub,2013-07-08 15:44:00,
2013-07-08 11:45:00,76.3,76.3,30.36,WSW,248,5.0,9.0,0,0.00,,,0.00,meteohub,2013-07-08 15:45:00,
2013-07-08 11:47:00,76.6,76.6,30.37,WSW,248,8.0,9.0,0,0.00,,,0.00,meteohub,2013-07-08 15:47:00,
2013-07-08 11:48:00,76.6,76.6,30.37,WSW,248,8.0,9.0,0,0.00,,,0.00,meteohub,2013-07-08 15:48:00,
2013-07-08 11:49:00,76.6,76.6,30.37,WSW,248,8.0,9.0,0,0.00,,,0.00,meteohub,2013-07-08 15:49:00,
2013-07-08 11:51:00,76.5,76.5,30.37,South,180,5.0,8.0,0,0.00,,,0.00,meteohub,2013-07-08 15:51:00,
2013-07-08 11:54:00,76.1,76.1,30.37,SE,135,2.0,8.0,0,0.00,,,0.00,meteohub,2013-07-08 15:54:00,
2013-07-08 11:55:00,76.3,76.3,30.37,WSW,248,4.0,8.0,0,0.00,,,0.00,meteohub,2013-07-08 15:55:00,
2013-07-08 11:56:00,77.0,77.0,30.36,NW,315,3.0,8.0,0,0.00,,,0.00,meteohub,2013-07-08 15:56:00,
2013-07-08 11:58:00,77.2,77.2,30.36,East,90,3.0,8.0,0,0.00,,,0.00,meteohub,2013-07-08 15:58:00,
2013-07-08 11:59:00,77.5,77.5,30.37,WSW,248,4.0,8.0,0,0.00,,,0.00,meteohub,2013-07-08 15:59:00,
2013-07-08 12:00:00,77.5,77.5,30.37,WSW,248,4.0,8.0,0,0.00,,,0.00,meteohub,2013-07-08 16:00:00,
2013-07-08 12:02:00,77.7,77.7,30.37,East,90,7.0,8.0,0,0.00,,,0.00,meteohub,2013-07-08 16:02:00,
2013-07-08 12:04:00,77.7,77.7,30.36,East,90,7.0,8.0,0,0.00,,,0.00,meteohub,2013-07-08 16:04:00,
2013-07-08 12:05:00,77.7,77.7,30.36,East,90,7.0,7.0,0,0.00,,,0.00,meteohub,2013-07-08 16:05:00,
2013-07-08 12:07:00,78.3,78.3,30.37,South,180,5.0,7.0,0,0.00,,,0.00,meteohub,2013-07-08 16:07:00,
2013-07-08 12:10:00,78.3,78.3,30.37,West,270,3.0,7.0,0,0.00,,,0.00,meteohub,2013-07-08 16:10:00,
2013-07-08 12:11:00,78.3,78.3,30.37,NW,315,2.0,7.0,0,0.00,,,0.00,meteohub,2013-07-08 16:11:00,
2013-07-08 12:12:00,78.4,78.4,30.36,WSW,248,4.0,7.0,0,0.00,,,0.00,meteohub,2013-07-08 16:12:00,
2013-07-08 12:15:00,78.3,78.3,30.36,NE,45,7.0,7.0,0,0.00,,,0.00,meteohub,2013-07-08 16:15:00,
2013-07-08 12:16:00,78.3,78.3,30.36,WSW,248,2.0,7.0,0,0.00,,,0.00,meteohub,2013-07-08 16:16:00,
2013-07-08 12:17:00,78.3,78.3,30.36,WSW,248,2.0,7.0,0,0.00,,,0.00,meteohub,2013-07-08 16:17:00,
2013-07-08 12:18:00,78.3,78.3,30.36,WSW,248,4.0,7.0,0,0.00,,,0.00,meteohub,2013-07-08 16:18:00,
2013-07-08 12:21:00,78.3,78.3,30.36,WSW,248,5.0,7.0,0,0.00,,,0.00,meteohub,2013-07-08 16:21:00,
2013-07-08 12:22:00,78.3,78.3,30.36,WSW,248,8.0,8.0,0,0.00,,,0.00,meteohub,2013-07-08 16:22:00,
2013-07-08 12:23:00,78.1,78.1,30.36,NW,315,4.0,7.0,0,0.00,,,0.00,meteohub,2013-07-08 16:23:00,
2013-07-08 12:24:00,78.1,78.1,30.36,South,180,5.0,7.0,0,0.00,,,0.00,meteohub,2013-07-08 16:24:00,
2013-07-08 12:27:00,78.4,78.4,30.36,WSW,248,2.0,8.0,0,0.00,,,0.00,meteohub,2013-07-08 16:27:00,
2013-07-08 12:28:00,78.4,78.4,30.36,South,180,4.0,8.0,0,0.00,,,0.00,meteohub,2013-07-08 16:28:00,
2013-07-08 12:29:00,78.8,78.8,30.36,WSW,248,2.0,8.0,0,0.00,,,0.00,meteohub,2013-07-08 16:29:00,
2013-07-08 12:30:00,78.8,78.8,30.36,WSW,248,7.0,8.0,0,0.00,,,0.00,meteohub,2013-07-08 16:30:00,
2013-07-08 12:32:00,79.2,79.2,30.36,SE,135,4.0,8.0,0,0.00,,,0.00,meteohub,2013-07-08 16:32:00,
2013-07-08 12:33:00,79.3,79.3,30.36,WSW,248,4.0,8.0,0,0.00,,,0.00,meteohub,2013-07-08 16:33:00,
2013-07-08 12:34:00,79.3,79.3,30.36,West,270,4.0,8.0,0,0.00,,,0.00,meteohub,2013-07-08 16:34:00,
2013-07-08 12:35:00,79.0,79.0,30.36,SSE,158,6.0,8.0,0,0.00,,,0.00,meteohub,2013-07-08 16:35:00,
2013-07-08 12:37:00,79.0,79.0,30.36,West,270,8.0,8.0,0,0.00,,,0.00,meteohub,2013-07-08 16:37:00,
2013-07-08 12:38:00,78.6,78.6,30.36,WSW,248,3.0,8.0,0,0.00,,,0.00,meteohub,2013-07-08 16:38:00,
2013-07-08 12:40:00,78.4,78.4,30.36,NW,315,8.0,8.0,0,0.00,,,0.00,meteohub,2013-07-08 16:40:00,
2013-07-08 12:41:00,78.3,78.3,30.36,SSW,203,10.0,10.0,0,0.00,,,0.00,meteohub,2013-07-08 16:41:00,
2013-07-08 12:42:00,78.1,78.1,30.36,West,270,5.0,8.0,0,0.00,,,0.00,meteohub,2013-07-08 16:42:00,
2013-07-08 12:45:00,78.1,78.1,30.36,SE,135,8.0,10.0,0,0.00,,,0.00,meteohub,2013-07-08 16:45:00,
2013-07-08 12:46:00,78.1,78.1,30.36,West,270,7.0,10.0,0,0.00,,,0.00,meteohub,2013-07-08 16:46:00,
2013-07-08 12:48:00,77.7,77.7,30.36,South,180,4.0,10.0,0,0.00,,,0.00,meteohub,2013-07-08 16:48:00,
2013-07-08 12:50:00,77.7,77.7,30.36,WSW,248,5.0,10.0,0,0.00,,,0.00,meteohub,2013-07-08 16:50:00,
2013-07-08 12:52:00,77.9,77.9,30.36,West,270,7.0,10.0,0,0.00,,,0.00,meteohub,2013-07-08 16:52:00,
2013-07-08 12:53:00,78.4,78.4,30.36,NW,315,3.0,10.0,0,0.00,,,0.00,meteohub,2013-07-08 16:53:00,
2013-07-08 12:55:00,78.8,78.8,30.35,WSW,248,6.0,10.0,0,0.00,,,0.00,meteohub,2013-07-08 16:55:00,
2013-07-08 12:57:00,79.0,79.0,30.36,South,180,2.0,10.0,0,0.00,,,0.00,meteohub,2013-07-08 16:57:00,
2013-07-08 12:59:00,79.7,79.7,30.36,NW,315,2.0,10.0,0,0.00,,,0.00,meteohub,2013-07-08 16:59:00,
2013-07-08 13:00:00,79.9,79.9,30.36,NW,315,4.0,8.0,0,0.00,,,0.00,meteohub,2013-07-08 17:00:00,
2013-07-08 13:01:00,79.9,79.9,30.36,NW,315,4.0,8.0,0,0.00,,,0.00,meteohub,2013-07-08 17:01:00,
2013-07-08 13:02:00,79.9,79.9,30.35,NW,315,4.0,8.0,0,0.00,,,0.00,meteohub,2013-07-08 17:02:00,
2013-07-08 13:06:00,79.9,79.9,30.35,NW,315,4.0,7.0,0,0.00,,,0.00,meteohub,2013-07-08 17:06:00,
2013-07-08 13:07:00,79.9,79.9,30.35,NW,315,4.0,7.0,0,0.00,,,0.00,meteohub,2013-07-08 17:07:00,
2013-07-08 13:08:00,79.9,79.9,30.35,NW,315,4.0,7.0,0,0.00,,,0.00,meteohub,2013-07-08 17:08:00,
2013-07-08 13:11:00,79.0,79.0,30.35,SE,135,3.0,6.0,0,0.00,,,0.00,meteohub,2013-07-08 17:11:00,
2013-07-08 13:12:00,79.0,79.0,30.35,West,270,8.0,8.0,0,0.00,,,0.00,meteohub,2013-07-08 17:12:00,
2013-07-08 13:13:00,79.0,79.0,30.36,NW,315,4.0,6.0,0,0.00,,,0.00,meteohub,2013-07-08 17:13:00,
2013-07-08 13:14:00,79.0,79.0,30.36,WSW,248,5.0,6.0,0,0.00,,,0.00,meteohub,2013-07-08 17:14:00,
2013-07-08 13:17:00,79.5,79.5,30.35,South,180,3.0,8.0,0,0.00,,,0.00,meteohub,2013-07-08 17:17:00,
2013-07-08 13:19:00,79.5,79.5,30.35,South,180,2.0,8.0,0,0.00,,,0.00,meteohub,2013-07-08 17:19:00,
2013-07-08 13:22:00,79.2,79.2,30.36,East,90,4.0,8.0,0,0.00,,,0.00,meteohub,2013-07-08 17:22:00,
2013-07-08 13:24:00,79.3,79.3,30.35,East,90,3.0,8.0,0,0.00,,,0.00,meteohub,2013-07-08 17:24:00,
2013-07-08 13:25:00,79.5,79.5,30.35,South,180,3.0,8.0,0,0.00,,,0.00,meteohub,2013-07-08 17:25:00,
2013-07-08 13:29:00,79.9,79.9,30.35,WSW,248,5.0,8.0,0,0.00,,,0.00,meteohub,2013-07-08 17:29:00,
2013-07-08 13:30:00,80.1,80.1,30.35,South,180,2.0,8.0,0,0.00,,,0.00,meteohub,2013-07-08 17:30:00,
2013-07-08 13:31:00,80.2,80.2,30.35,WSW,248,5.0,8.0,0,0.00,,,0.00,meteohub,2013-07-08 17:31:00,
2013-07-08 13:34:00,79.7,79.7,30.35,West,270,2.0,8.0,0,0.00,,,0.00,meteohub,2013-07-08 17:34:00,
2013-07-08 13:35:00,79.5,79.5,30.35,SE,135,4.0,8.0,0,0.00,,,0.00,meteohub,2013-07-08 17:35:00,
2013-07-08 13:36:00,79.3,79.3,30.35,North,0,4.0,8.0,0,0.00,,,0.00,meteohub,2013-07-08 17:36:00,
2013-07-08 13:37:00,79.5,79.5,30.35,SSE,158,2.0,8.0,0,0.00,,,0.00,meteohub,2013-07-08 17:37:00,
2013-07-08 13:41:00,79.7,79.7,30.35,South,180,5.0,8.0,0,0.00,,,0.00,meteohub,2013-07-08 17:41:00,
2013-07-08 13:42:00,79.7,79.7,30.35,SSE,158,5.0,8.0,0,0.00,,,0.00,meteohub,2013-07-08 17:42:00,
2013-07-08 13:44:00,79.3,79.3,30.35,SE,135,2.0,8.0,0,0.00,,,0.00,meteohub,2013-07-08 17:44:00,
2013-07-08 13:46:00,79.7,79.7,30.35,South,180,4.0,7.0,0,0.00,,,0.00,meteohub,2013-07-08 17:46:00,
2013-07-08 13:47:00,79.7,79.7,30.35,South,180,4.0,7.0,0,0.00,,,0.00,meteohub,2013-07-08 17:47:00,
2013-07-08 13:48:00,79.9,79.9,30.35,South,180,7.0,7.0,0,0.00,,,0.00,meteohub,2013-07-08 17:48:00,
2013-07-08 13:50:00,80.1,80.1,30.35,WSW,248,6.0,7.0,0,0.00,,,0.00,meteohub,2013-07-08 17:50:00,
2013-07-08 13:52:00,80.2,80.2,30.34,South,180,8.0,8.0,0,0.00,,,0.00,meteohub,2013-07-08 17:52:00,
2013-07-08 13:53:00,80.2,80.2,30.34,West,270,3.0,8.0,0,0.00,,,0.00,meteohub,2013-07-08 17:53:00,
2013-07-08 13:55:00,79.9,79.9,30.35,SE,135,10.0,10.0,0,0.00,,,0.00,meteohub,2013-07-08 17:55:00,
2013-07-08 13:57:00,79.0,79.0,30.34,North,0,2.0,8.0,0,0.00,,,0.00,meteohub,2013-07-08 17:57:00,
2013-07-08 13:58:00,79.0,79.0,30.34,North,0,2.0,8.0,0,0.00,,,0.00,meteohub,2013-07-08 17:58:00,
2013-07-08 14:01:00,79.0,79.0,30.34,South,180,8.0,10.0,0,0.00,,,0.00,meteohub,2013-07-08 18:01:00,
2013-07-08 14:05:00,79.0,79.0,30.34,South,180,8.0,10.0,0,0.00,,,0.00,meteohub,2013-07-08 18:05:00,
2013-07-08 14:06:00,79.0,79.0,30.34,South,180,8.0,10.0,0,0.00,,,0.00,meteohub,2013-07-08 18:06:00,
2013-07-08 14:10:00,80.1,80.1,30.34,NW,315,7.0,10.0,0,0.00,,,0.00,meteohub,2013-07-08 18:10:00,
2013-07-08 14:11:00,80.1,80.1,30.34,NW,315,7.0,10.0,0,0.00,,,0.00,meteohub,2013-07-08 18:11:00,
2013-07-08 14:17:00,80.8,80.8,30.34,South,180,6.0,8.0,0,0.00,,,0.00,meteohub,2013-07-08 18:17:00,
2013-07-08 14:19:00,80.6,80.6,30.34,SE,135,4.0,8.0,0,0.00,,,0.00,meteohub,2013-07-08 18:19:00,
2013-07-08 14:23:00,80.2,80.2,30.34,WSW,248,5.0,8.0,0,0.00,,,0.00,meteohub,2013-07-08 18:23:00,
2013-07-08 14:25:00,79.9,79.9,30.34,WSW,248,4.0,8.0,0,0.00,,,0.00,meteohub,2013-07-08 18:25:00,
2013-07-08 14:30:00,80.6,80.6,30.34,SSE,158,3.0,8.0,0,0.00,,,0.00,meteohub,2013-07-08 18:30:00,
2013-07-08 14:32:00,80.4,80.4,30.34,NW,315,5.0,8.0,0,0.00,,,0.00,meteohub,2013-07-08 18:32:00,
2013-07-08 14:35:00,79.9,79.9,30.34,South,180,6.0,6.0,0,0.00,,,0.00,meteohub,2013-07-08 18:35:00,
2013-07-08 14:36:00,79.7,79.7,30.34,West,270,3.0,6.0,0,0.00,,,0.00,meteohub,2013-07-08 18:36:00,
2013-07-08 14:37:00,79.5,79.5,30.34,West,270,4.0,6.0,0,0.00,,,0.00,meteohub,2013-07-08 18:37:00,
2013-07-08 14:41:00,79.2,79.2,30.33,East,90,2.0,6.0,0,0.00,,,0.00,meteohub,2013-07-08 18:41:00,
2013-07-08 14:43:00,79.5,79.5,30.33,NW,315,7.0,9.0,0,0.00,,,0.00,meteohub,2013-07-08 18:43:00,
2013-07-08 14:47:00,80.6,80.6,30.33,WSW,248,6.0,9.0,0,0.00,,,0.00,meteohub,2013-07-08 18:47:00,
2013-07-08 14:49:00,81.0,81.0,30.34,West,270,4.0,9.0,0,0.00,,,0.00,meteohub,2013-07-08 18:49:00,
2013-07-08 14:53:00,81.0,81.0,30.33,South,180,4.0,9.0,0,0.00,,,0.00,meteohub,2013-07-08 18:53:00,
2013-07-08 14:54:00,80.6,80.6,30.33,SE,135,4.0,9.0,0,0.00,,,0.00,meteohub,2013-07-08 18:54:00,
2013-07-08 14:58:00,80.4,80.4,30.33,East,90,4.0,7.0,0,0.00,,,0.00,meteohub,2013-07-08 18:58:00,
2013-07-08 15:00:00,80.6,80.6,30.33,WSW,248,2.0,7.0,0,0.00,,,0.00,meteohub,2013-07-08 19:00:00,
2013-07-08 15:04:00,80.8,80.8,30.33,SE,135,5.0,6.0,0,0.00,,,0.00,meteohub,2013-07-08 19:04:00,
2013-07-08 15:05:00,80.8,80.8,30.33,SE,135,5.0,6.0,0,0.00,,,0.00,meteohub,2013-07-08 19:05:00,
2013-07-08 15:09:00,80.4,80.4,30.33,WSW,248,5.0,6.0,0,0.00,,,0.00,meteohub,2013-07-08 19:09:00,
2013-07-08 15:11:00,80.6,80.6,30.33,WSW,248,4.0,6.0,0,0.00,,,0.00,meteohub,2013-07-08 19:11:00,
2013-07-08 15:12:00,81.0,81.0,30.33,WSW,248,4.0,6.0,0,0.00,,,0.00,meteohub,2013-07-08 19:12:00,
2013-07-08 15:16:00,80.6,80.6,30.33,NW,315,4.0,5.0,0,0.00,,,0.00,meteohub,2013-07-08 19:16:00,
2013-07-08 15:17:00,80.4,80.4,30.33,WSW,248,7.0,7.0,0,0.00,,,0.00,meteohub,2013-07-08 19:17:00,
2013-07-08 15:18:00,80.2,80.2,30.33,NW,315,4.0,5.0,0,0.00,,,0.00,meteohub,2013-07-08 19:18:00,
2013-07-08 15:21:00,79.9,79.9,30.33,North,0,5.0,7.0,0,0.00,,,0.00,meteohub,2013-07-08 19:21:00,
2013-07-08 15:23:00,80.1,80.1,30.33,NW,315,4.0,7.0,0,0.00,,,0.00,meteohub,2013-07-08 19:23:00,
2013-07-08 15:26:00,80.6,80.6,30.33,West,270,4.0,7.0,0,0.00,,,0.00,meteohub,2013-07-08 19:26:00,
2013-07-08 15:28:00,81.3,81.3,30.32,NE,45,4.0,7.0,0,0.00,,,0.00,meteohub,2013-07-08 19:28:00,
2013-07-08 15:31:00,81.5,81.5,30.32,NW,315,4.0,7.0,0,0.00,,,0.00,meteohub,2013-07-08 19:31:00,
2013-07-08 15:36:00,81.7,81.7,30.32,NE,45,2.0,7.0,0,0.00,,,0.00,meteohub,2013-07-08 19:36:00,
2013-07-08 15:37:00,81.9,81.9,30.32,NE,45,4.0,7.0,0,0.00,,,0.00,meteohub,2013-07-08 19:37:00,
2013-07-08 15:39:00,81.7,81.7,30.32,SE,135,4.0,7.0,0,0.00,,,0.00,meteohub,2013-07-08 19:39:00,
2013-07-08 15:41:00,81.9,81.9,30.32,North,0,4.0,7.0,0,0.00,,,0.00,meteohub,2013-07-08 19:41:00,
2013-07-08 15:45:00,82.0,82.0,30.32,WSW,248,4.0,7.0,0,0.00,,,0.00,meteohub,2013-07-08 19:45:00,
2013-07-08 15:46:00,81.9,81.9,30.32,WSW,248,4.0,7.0,0,0.00,,,0.00,meteohub,2013-07-08 19:46:00,
2013-07-08 15:50:00,81.5,81.5,30.32,West,270,6.0,7.0,0,0.00,,,0.00,meteohub,2013-07-08 19:50:00,
2013-07-08 15:51:00,81.3,81.3,30.32,WSW,248,4.0,5.0,0,0.00,,,0.00,meteohub,2013-07-08 19:51:00,
2013-07-08 16:01:00,82.0,82.0,30.32,SE,135,7.0,7.0,0,0.00,,,0.00,meteohub,2013-07-08 20:01:00,
2013-07-08 16:02:00,82.0,82.0,30.32,South,180,5.0,7.0,0,0.00,,,0.00,meteohub,2013-07-08 20:02:00,
2013-07-08 16:05:00,82.2,82.2,30.32,WNW,293,4.0,7.0,0,0.00,,,0.00,meteohub,2013-07-08 20:05:00,
2013-07-08 16:07:00,82.6,82.6,30.32,South,180,6.0,8.0,0,0.00,,,0.00,meteohub,2013-07-08 20:07:00,
2013-07-08 16:09:00,82.8,82.8,30.32,South,180,4.0,8.0,0,0.00,,,0.00,meteohub,2013-07-08 20:09:00,
2013-07-08 16:12:00,82.0,82.0,30.32,South,180,2.0,8.0,0,0.00,,,0.00,meteohub,2013-07-08 20:12:00,
2013-07-08 16:15:00,81.0,81.0,30.32,South,180,4.0,8.0,0,0.00,,,0.00,meteohub,2013-07-08 20:15:00,
2013-07-08 16:18:00,80.4,80.4,30.32,WSW,248,3.0,6.0,0,0.00,,,0.00,meteohub,2013-07-08 20:18:00,
2013-07-08 16:21:00,79.2,79.2,30.32,East,90,2.0,6.0,0,0.00,,,0.00,meteohub,2013-07-08 20:21:00,
2013-07-08 16:23:00,79.7,79.7,30.32,West,270,4.0,6.0,0,0.00,,,0.00,meteohub,2013-07-08 20:23:00,
2013-07-08 16:27:00,80.4,80.4,30.32,West,270,4.0,6.0,0,0.00,,,0.00,meteohub,2013-07-08 20:27:00,
2013-07-08 16:29:00,81.5,81.5,30.32,South,180,8.0,8.0,0,0.00,,,0.00,meteohub,2013-07-08 20:29:00,
2013-07-08 16:32:00,82.2,82.2,30.32,South,180,6.0,6.0,0,0.00,,,0.00,meteohub,2013-07-08 20:32:00,
2013-07-08 16:34:00,82.6,82.6,30.32,WSW,248,5.0,6.0,0,0.00,,,0.00,meteohub,2013-07-08 20:34:00,
2013-07-08 16:38:00,82.9,82.9,30.32,NW,315,2.0,8.0,0,0.00,,,0.00,meteohub,2013-07-08 20:38:00,
2013-07-08 16:40:00,83.5,83.5,30.32,West,270,6.0,8.0,0,0.00,,,0.00,meteohub,2013-07-08 20:40:00,
2013-07-08 16:43:00,83.7,83.7,30.32,South,180,2.0,8.0,0,0.00,,,0.00,meteohub,2013-07-08 20:43:00,
2013-07-08 16:45:00,83.7,83.7,30.32,West,270,2.0,6.0,0,0.00,,,0.00,meteohub,2013-07-08 20:45:00,
2013-07-08 16:46:00,83.7,83.7,30.32,SE,135,3.0,6.0,0,0.00,,,0.00,meteohub,2013-07-08 20:46:00,
2013-07-08 16:48:00,83.3,83.3,30.32,South,180,4.0,6.0,0,0.00,,,0.00,meteohub,2013-07-08 20:48:00,
2013-07-08 16:52:00,82.4,82.4,30.32,South,180,5.0,8.0,0,0.00,,,0.00,meteohub,2013-07-08 20:52:00,
2013-07-08 16:53:00,82.0,82.0,30.32,WSW,248,8.0,8.0,0,0.00,,,0.00,meteohub,2013-07-08 20:53:00,
2013-07-08 16:54:00,82.0,82.0,30.32,WSW,248,8.0,8.0,0,0.00,,,0.00,meteohub,2013-07-08 20:54:00,
2013-07-08 16:58:00,80.1,80.1,30.32,WSW,248,2.0,8.0,0,0.00,,,0.00,meteohub,2013-07-08 20:58:00,
2013-07-08 17:00:00,79.0,79.0,30.32,NW,315,2.0,8.0,0,0.00,,,0.00,meteohub,2013-07-08 21:00:00,
2013-07-08 17:03:00,78.3,78.3,30.32,WSW,248,2.0,8.0,0,0.00,,,0.00,meteohub,2013-07-08 21:03:00,
2013-07-08 17:04:00,78.1,78.1,30.32,WSW,248,1.0,8.0,0,0.00,,,0.00,meteohub,2013-07-08 21:04:00,
2013-07-08 17:06:00,77.9,77.9,30.31,NW,315,1.0,8.0,0,0.00,,,0.00,meteohub,2013-07-08 21:06:00,
2013-07-08 17:09:00,77.0,77.0,30.32,SE,135,2.0,8.0,0,0.00,,,0.00,meteohub,2013-07-08 21:09:00,
2013-07-08 17:11:00,76.8,76.8,30.32,WSW,248,3.0,4.0,0,0.00,,,0.00,meteohub,2013-07-08 21:11:00,
2013-07-08 17:17:00,76.5,76.5,30.32,South,180,3.0,4.0,0,0.00,,,0.00,meteohub,2013-07-08 21:17:00,
2013-07-08 17:18:00,76.5,76.5,30.32,South,180,3.0,4.0,0,0.00,,,0.00,meteohub,2013-07-08 21:18:00,
2013-07-08 17:19:00,76.5,76.5,30.32,South,180,3.0,4.0,0,0.00,,,0.00,meteohub,2013-07-08 21:19:00,
2013-07-08 17:23:00,78.6,78.6,30.32,WSW,248,5.0,5.0,0,0.00,,,0.00,meteohub,2013-07-08 21:23:00,
2013-07-08 17:24:00,78.6,78.6,30.32,WSW,248,5.0,5.0,0,0.00,,,0.00,meteohub,2013-07-08 21:24:00,
2013-07-08 17:25:00,78.4,78.4,30.32,South,180,2.0,5.0,0,0.00,,,0.00,meteohub,2013-07-08 21:25:00,
2013-07-08 17:29:00,79.0,79.0,30.32,South,180,2.0,5.0,0,0.00,,,0.00,meteohub,2013-07-08 21:29:00,
2013-07-08 17:32:00,80.2,80.2,30.32,West,270,2.0,5.0,0,0.00,,,0.00,meteohub,2013-07-08 21:32:00,
2013-07-08 17:36:00,81.7,81.7,30.32,South,180,1.0,5.0,0,0.00,,,0.00,meteohub,2013-07-08 21:36:00,
2013-07-08 17:38:00,81.7,81.7,30.32,South,180,1.0,5.0,0,0.00,,,0.00,meteohub,2013-07-08 21:38:00,
2013-07-08 17:39:00,82.0,82.0,30.32,WSW,248,2.0,5.0,0,0.00,,,0.00,meteohub,2013-07-08 21:39:00,
2013-07-08 17:42:00,83.3,83.3,30.32,WSW,248,3.0,4.0,0,0.00,,,0.00,meteohub,2013-07-08 21:42:00,
2013-07-08 17:45:00,83.3,83.3,30.32,NW,315,4.0,4.0,0,0.00,,,0.00,meteohub,2013-07-08 21:45:00,
2013-07-08 17:46:00,83.3,83.3,30.32,WSW,248,2.0,4.0,0,0.00,,,0.00,meteohub,2013-07-08 21:46:00,
2013-07-08 17:47:00,83.3,83.3,30.32,SE,135,2.0,4.0,0,0.00,,,0.00,meteohub,2013-07-08 21:47:00,
2013-07-08 17:51:00,82.9,82.9,30.32,West,270,3.0,4.0,0,0.00,,,0.00,meteohub,2013-07-08 21:51:00,
2013-07-08 17:52:00,81.9,81.9,30.32,WSW,248,0.0,4.0,0,0.00,,,0.00,meteohub,2013-07-08 21:52:00,
2013-07-08 17:54:00,81.7,81.7,30.32,WSW,248,0.0,4.0,0,0.00,,,0.00,meteohub,2013-07-08 21:54:00,
2013-07-08 17:56:00,80.2,80.2,30.32,South,180,2.0,4.0,0,0.00,,,0.00,meteohub,2013-07-08 21:56:00,
2013-07-08 17:57:00,79.9,79.9,30.32,West,270,2.0,4.0,0,0.00,,,0.00,meteohub,2013-07-08 21:57:00,
2013-07-08 18:00:00,79.0,79.0,30.32,WSW,248,2.0,4.0,0,0.00,,,0.00,meteohub,2013-07-08 22:00:00,
2013-07-08 18:01:00,78.6,78.6,30.32,South,180,0.0,3.0,0,0.00,,,0.00,meteohub,2013-07-08 22:01:00,
2013-07-08 18:03:00,78.6,78.6,30.32,South,180,0.0,3.0,0,0.00,,,0.00,meteohub,2013-07-08 22:03:00,
2013-07-08 18:06:00,78.1,78.1,30.32,WSW,248,2.0,2.0,0,0.00,,,0.00,meteohub,2013-07-08 22:06:00,
2013-07-08 18:08:00,77.9,77.9,30.32,WSW,248,2.0,2.0,0,0.00,,,0.00,meteohub,2013-07-08 22:08:00,
2013-07-08 18:11:00,77.9,77.9,30.32,East,90,2.0,2.0,0,0.00,,,0.00,meteohub,2013-07-08 22:11:00,
2013-07-08 18:13:00,78.3,78.3,30.31,NW,315,2.0,2.0,0,0.00,,,0.00,meteohub,2013-07-08 22:13:00,
2013-07-08 18:16:00,78.4,78.4,30.32,WSW,248,6.0,6.0,0,0.00,,,0.00,meteohub,2013-07-08 22:16:00,
2013-07-08 18:17:00,78.4,78.4,30.31,South,180,2.0,6.0,0,0.00,,,0.00,meteohub,2013-07-08 22:17:00,
2013-07-08 18:20:00,78.4,78.4,30.32,South,180,2.0,6.0,0,0.00,,,0.00,meteohub,2013-07-08 22:20:00,
2013-07-08 18:22:00,78.4,78.4,30.31,South,180,2.0,6.0,0,0.00,,,0.00,meteohub,2013-07-08 22:22:00,
2013-07-08 18:23:00,78.4,78.4,30.31,South,180,2.0,6.0,0,0.00,,,0.00,meteohub,2013-07-08 22:23:00,
2013-07-08 18:27:00,78.4,78.4,30.32,NW,315,1.0,6.0,0,0.00,,,0.00,meteohub,2013-07-08 22:27:00,
2013-07-08 18:28:00,78.4,78.4,30.32,NW,315,1.0,6.0,0,0.00,,,0.00,meteohub,2013-07-08 22:28:00,
2013-07-08 18:29:00,79.2,79.2,30.31,West,270,4.0,6.0,0,0.00,,,0.00,meteohub,2013-07-08 22:29:00,
2013-07-08 18:33:00,80.6,80.6,30.32,WSW,248,1.0,6.0,0,0.00,,,0.00,meteohub,2013-07-08 22:33:00,
2013-07-08 18:34:00,81.0,81.0,30.31,NW,315,3.0,6.0,0,0.00,,,0.00,meteohub,2013-07-08 22:34:00,
2013-07-08 18:36:00,80.6,80.6,30.32,West,270,3.0,4.0,0,0.00,,,0.00,meteohub,2013-07-08 22:36:00,
2013-07-08 18:39:00,80.1,80.1,30.32,WSW,248,3.0,4.0,0,0.00,,,0.00,meteohub,2013-07-08 22:39:00,
2013-07-08 18:41:00,79.0,79.0,30.32,ESE,113,2.0,4.0,0,0.00,,,0.00,meteohub,2013-07-08 22:41:00,
2013-07-08 18:42:00,79.0,79.0,30.32,ESE,113,2.0,4.0,0,0.00,,,0.00,meteohub,2013-07-08 22:42:00,
2013-07-08 18:45:00,78.4,78.4,30.31,NE,45,3.0,4.0,0,0.00,,,0.00,meteohub,2013-07-08 22:45:00,
2013-07-08 18:50:00,78.8,78.8,30.32,WSW,248,3.0,4.0,0,0.00,,,0.00,meteohub,2013-07-08 22:50:00,
2013-07-08 18:53:00,79.0,79.0,30.31,South,180,4.0,4.0,0,0.00,,,0.00,meteohub,2013-07-08 22:53:00,
2013-07-08 18:55:00,79.0,79.0,30.31,West,270,5.0,6.0,0,0.00,,,0.00,meteohub,2013-07-08 22:55:00,
2013-07-08 18:58:00,79.3,79.3,30.31,SE,135,2.0,6.0,0,0.00,,,0.00,meteohub,2013-07-08 22:58:00,
2013-07-08 19:00:00,79.5,79.5,30.31,South,180,1.0,6.0,0,0.00,,,0.00,meteohub,2013-07-08 23:00:00,
2013-07-08 19:01:00,79.7,79.7,30.31,WSW,248,2.0,6.0,0,0.00,,,0.00,meteohub,2013-07-08 23:01:00,
2013-07-08 19:04:00,79.7,79.7,30.30,WSW,248,2.0,6.0,0,0.00,,,0.00,meteohub,2013-07-08 23:04:00,
2013-07-08 19:06:00,79.5,79.5,30.31,South,180,4.0,6.0,0,0.00,,,0.00,meteohub,2013-07-08 23:06:00,
2013-07-08 19:07:00,79.2,79.2,30.31,South,180,2.0,6.0,0,0.00,,,0.00,meteohub,2013-07-08 23:07:00,
2013-07-08 19:10:00,78.6,78.6,30.31,South,180,1.0,6.0,0,0.00,,,0.00,meteohub,2013-07-08 23:10:00,
2013-07-08 19:12:00,77.9,77.9,30.31,WSW,248,3.0,5.0,0,0.00,,,0.00,meteohub,2013-07-08 23:12:00,
2013-07-08 19:13:00,77.5,77.5,30.31,WSW,248,2.0,5.0,0,0.00,,,0.00,meteohub,2013-07-08 23:13:00,
2013-07-08 19:19:00,77.0,77.0,30.31,South,180,2.0,4.0,0,0.00,,,0.00,meteohub,2013-07-08 23:19:00,
2013-07-08 19:20:00,77.0,77.0,30.31,SE,135,2.0,4.0,0,0.00,,,0.00,meteohub,2013-07-08 23:20:00,
2013-07-08 19:24:00,76.5,76.5,30.31,WSW,248,1.0,4.0,0,0.00,,,0.00,meteohub,2013-07-08 23:24:00,
2013-07-08 19:25:00,76.5,76.5,30.31,WSW,248,1.0,4.0,0,0.00,,,0.00,meteohub,2013-07-08 23:25:00,
2013-07-08 19:26:00,76.5,76.5,30.31,South,180,4.0,4.0,0,0.00,,,0.00,meteohub,2013-07-08 23:26:00,
2013-07-08 19:30:00,76.1,76.1,30.32,South,180,0.0,4.0,0,0.00,,,0.00,meteohub,2013-07-08 23:30:00,
2013-07-08 19:31:00,76.1,76.1,30.31,South,180,6.0,6.0,0,0.00,,,0.00,meteohub,2013-07-08 23:31:00,
2013-07-08 19:35:00,75.6,75.6,30.32,East,90,3.0,4.0,0,0.00,,,0.00,meteohub,2013-07-08 23:35:00,
2013-07-08 19:36:00,75.6,75.6,30.32,SE,135,2.0,6.0,0,0.00,,,0.00,meteohub,2013-07-08 23:36:00,
2013-07-08 19:40:00,75.0,75.0,30.32,NE,45,0.0,6.0,0,0.00,,,0.00,meteohub,2013-07-08 23:40:00,
2013-07-08 19:41:00,74.8,74.8,30.32,WSW,248,0.0,6.0,0,0.00,,,0.00,meteohub,2013-07-08 23:41:00,
2013-07-08 19:42:00,74.8,74.8,30.32,WSW,248,0.0,6.0,0,0.00,,,0.00,meteohub,2013-07-08 23:42:00,
2013-07-08 19:45:00,74.5,74.5,30.32,West,270,3.0,6.0,0,0.00,,,0.00,meteohub,2013-07-08 23:45:00,
2013-07-08 19:47:00,74.3,74.3,30.32,WSW,248,1.0,6.0,0,0.00,,,0.00,meteohub,2013-07-08 23:47:00,
2013-07-08 19:48:00,74.3,74.3,30.32,WSW,248,0.0,6.0,0,0.00,,,0.00,meteohub,2013-07-08 23:48:00,
2013-07-08 19:50:00,74.1,74.1,30.32,SE,135,2.0,4.0,0,0.00,,,0.00,meteohub,2013-07-08 23:50:00,
2013-07-08 19:54:00,73.8,73.8,30.32,NW,315,2.0,4.0,0,0.00,,,0.00,meteohub,2013-07-08 23:54:00,
2013-07-08 19:56:00,73.8,73.8,30.32,WSW,248,2.0,3.0,0,0.00,,,0.00,meteohub,2013-07-08 23:56:00,
2013-07-08 19:58:00,73.6,73.6,30.32,North,0,2.0,3.0,0,0.00,,,0.00,meteohub,2013-07-08 23:58:00,
2013-07-08 19:59:00,73.4,73.4,30.32,WSW,248,2.0,3.0,0,0.00,,,0.00,meteohub,2013-07-08 23:59:00,
2013-07-08 20:01:00,73.4,73.4,30.33,WSW,248,4.0,4.0,0,0.00,,,0.00,meteohub,2013-07-09 00:01:00,
2013-07-08 20:04:00,73.4,73.4,30.32,WSW,248,4.0,4.0,0,0.00,,,0.00,meteohub,2013-07-09 00:04:00,
2013-07-08 20:05:00,73.4,73.4,30.33,WSW,248,4.0,4.0,0,0.00,,,0.00,meteohub,2013-07-09 00:05:00,
2013-07-08 20:07:00,73.4,73.4,30.33,WSW,248,4.0,4.0,0,0.00,,,0.00,meteohub,2013-07-09 00:07:00,
2013-07-08 20:09:00,73.0,73.0,30.33,WSW,248,0.0,4.0,0,0.00,,,0.00,meteohub,2013-07-09 00:09:00,
2013-07-08 20:11:00,72.9,72.9,30.33,East,90,0.0,4.0,0,0.00,,,0.00,meteohub,2013-07-09 00:11:00,
2013-07-08 20:12:00,72.9,72.9,30.34,ESE,113,0.0,4.0,0,0.00,,,0.00,meteohub,2013-07-09 00:12:00,
2013-07-08 20:16:00,72.9,72.9,30.33,South,180,2.0,4.0,0,0.00,,,0.00,meteohub,2013-07-09 00:16:00,
2013-07-08 20:17:00,72.9,72.9,30.33,South,180,1.0,4.0,0,0.00,,,0.00,meteohub,2013-07-09 00:17:00,
2013-07-08 20:23:00,72.7,72.7,30.34,South,180,0.0,4.0,0,0.00,,,0.00,meteohub,2013-07-09 00:23:00,
2013-07-08 20:24:00,72.7,72.7,30.34,South,180,0.0,4.0,0,0.00,,,0.00,meteohub,2013-07-09 00:24:00,
2013-07-08 20:29:00,72.5,72.5,30.34,SE,135,3.0,3.0,0,0.00,,,0.00,meteohub,2013-07-09 00:29:00,
2013-07-08 20:30:00,72.5,72.5,30.34,SW,225,2.0,3.0,0,0.00,,,0.00,meteohub,2013-07-09 00:30:00,
2013-07-08 20:35:00,72.3,72.3,30.34,South,180,2.0,3.0,0,0.00,,,0.00,meteohub,2013-07-09 00:35:00,
2013-07-08 20:36:00,72.3,72.3,30.33,South,180,2.0,3.0,0,0.00,,,0.00,meteohub,2013-07-09 00:36:00,
2013-07-08 20:41:00,72.3,72.3,30.34,SE,135,2.0,3.0,0,0.00,,,0.00,meteohub,2013-07-09 00:41:00,
2013-07-08 20:42:00,72.1,72.1,30.34,SE,135,2.0,3.0,0,0.00,,,0.00,meteohub,2013-07-09 00:42:00,
2013-07-08 20:46:00,72.0,72.0,30.33,WSW,248,2.0,3.0,0,0.00,,,0.00,meteohub,2013-07-09 00:46:00,
2013-07-08 20:48:00,72.0,72.0,30.33,WSW,248,2.0,3.0,0,0.00,,,0.00,meteohub,2013-07-09 00:48:00,
2013-07-08 20:52:00,72.0,72.0,30.33,SE,135,2.0,4.0,0,0.00,,,0.00,meteohub,2013-07-09 00:52:00,
2013-07-08 20:56:00,71.8,71.8,30.33,SE,135,1.0,4.0,0,0.00,,,0.00,meteohub,2013-07-09 00:56:00,
2013-07-08 20:57:00,71.8,71.8,30.33,East,90,2.0,4.0,0,0.00,,,0.00,meteohub,2013-07-09 00:57:00,
2013-07-08 20:59:00,71.8,71.8,30.33,South,180,2.0,4.0,0,0.00,,,0.00,meteohub,2013-07-09 00:59:00,
2013-07-08 21:02:00,71.6,71.6,30.33,SE,135,1.0,4.0,0,0.00,,,0.00,meteohub,2013-07-09 01:02:00,
2013-07-08 21:03:00,71.6,71.6,30.33,SE,135,1.0,4.0,0,0.00,,,0.00,meteohub,2013-07-09 01:03:00,
2013-07-08 21:07:00,71.6,71.6,30.33,SE,135,1.0,3.0,0,0.00,,,0.00,meteohub,2013-07-09 01:07:00,
2013-07-08 21:09:00,71.4,71.4,30.33,SE,135,0.0,3.0,0,0.00,,,0.00,meteohub,2013-07-09 01:09:00,
2013-07-08 21:10:00,71.4,71.4,30.33,WSW,248,2.0,3.0,0,0.00,,,0.00,meteohub,2013-07-09 01:10:00,
2013-07-08 21:12:00,71.4,71.4,30.33,SE,135,3.0,3.0,0,0.00,,,0.00,meteohub,2013-07-09 01:12:00,
2013-07-08 21:15:00,71.4,71.4,30.33,South,180,2.0,3.0,0,0.00,,,0.00,meteohub,2013-07-09 01:15:00,
2013-07-08 21:17:00,71.4,71.4,30.33,WSW,248,2.0,3.0,0,0.00,,,0.00,meteohub,2013-07-09 01:17:00,
2013-07-08 21:18:00,71.4,71.4,30.33,South,180,2.0,3.0,0,0.00,,,0.00,meteohub,2013-07-09 01:18:00,
2013-07-08 21:21:00,71.4,71.4,30.33,South,180,3.0,4.0,0,0.00,,,0.00,meteohub,2013-07-09 01:21:00,
2013-07-08 21:23:00,71.4,71.4,30.33,WSW,248,2.0,4.0,0,0.00,,,0.00,meteohub,2013-07-09 01:23:00,
2013-07-08 21:27:00,71.4,71.4,30.33,SE,135,4.0,4.0,0,0.00,,,0.00,meteohub,2013-07-09 01:27:00,
2013-07-08 21:29:00,71.4,71.4,30.33,WSW,248,2.0,4.0,0,0.00,,,0.00,meteohub,2013-07-09 01:29:00,
2013-07-08 21:34:00,71.4,71.4,30.33,South,180,0.0,4.0,0,0.00,,,0.00,meteohub,2013-07-09 01:34:00,
2013-07-08 21:36:00,71.2,71.2,30.33,South,180,2.0,4.0,0,0.00,,,0.00,meteohub,2013-07-09 01:36:00,
2013-07-08 21:37:00,71.4,71.4,30.33,South,180,2.0,4.0,0,0.00,,,0.00,meteohub,2013-07-09 01:37:00,
2013-07-08 21:40:00,71.4,71.4,30.34,SE,135,2.0,4.0,0,0.00,,,0.00,meteohub,2013-07-09 01:40:00,
2013-07-08 21:41:00,71.4,71.4,30.34,SE,135,2.0,4.0,0,0.00,,,0.00,meteohub,2013-07-09 01:41:00,
2013-07-08 21:42:00,71.4,71.4,30.34,South,180,2.0,4.0,0,0.00,,,0.00,meteohub,2013-07-09 01:42:00,
2013-07-08 21:45:00,71.4,71.4,30.34,South,180,2.0,3.0,0,0.00,,,0.00,meteohub,2013-07-09 01:45:00,
2013-07-08 21:46:00,71.4,71.4,30.34,South,180,2.0,3.0,0,0.00,,,0.00,meteohub,2013-07-09 01:46:00,
2013-07-08 21:48:00,71.4,71.4,30.34,South,180,2.0,3.0,0,0.00,,,0.00,meteohub,2013-07-09 01:48:00,
2013-07-08 21:51:00,71.4,71.4,30.34,South,180,2.0,3.0,0,0.00,,,0.00,meteohub,2013-07-09 01:51:00,
2013-07-08 21:52:00,71.4,71.4,30.34,WSW,248,2.0,3.0,0,0.00,,,0.00,meteohub,2013-07-09 01:52:00,
2013-07-08 21:54:00,71.4,71.4,30.35,South,180,2.0,3.0,0,0.00,,,0.00,meteohub,2013-07-09 01:54:00,
2013-07-08 21:56:00,71.4,71.4,30.34,SE,135,2.0,4.0,0,0.00,,,0.00,meteohub,2013-07-09 01:56:00,
2013-07-08 21:57:00,71.4,71.4,30.34,South,180,0.0,4.0,0,0.00,,,0.00,meteohub,2013-07-09 01:57:00,
2013-07-08 22:01:00,71.2,71.2,30.34,South,180,2.0,4.0,0,0.00,,,0.00,meteohub,2013-07-09 02:01:00,
2013-07-08 22:02:00,71.2,71.2,30.35,SSE,158,1.0,4.0,0,0.00,,,0.00,meteohub,2013-07-09 02:02:00,
2013-07-08 22:06:00,71.1,71.1,30.34,SE,135,1.0,4.0,0,0.00,,,0.00,meteohub,2013-07-09 02:06:00,
2013-07-08 22:07:00,71.1,71.1,30.35,South,180,2.0,4.0,0,0.00,,,0.00,meteohub,2013-07-09 02:07:00,
2013-07-08 22:08:00,71.1,71.1,30.35,SE,135,2.0,4.0,0,0.00,,,0.00,meteohub,2013-07-09 02:08:00,
2013-07-08 22:13:00,70.9,70.9,30.35,SE,135,1.0,3.0,0,0.00,,,0.00,meteohub,2013-07-09 02:13:00,
2013-07-08 22:16:00,70.7,11.5,30.35,South,180,0.0,2.0,10,0.00,,,0.00,meteohub,2013-07-09 02:16:00,
2013-07-08 22:18:00,70.7,11.5,30.35,South,180,0.0,2.0,10,0.00,,,0.00,meteohub,2013-07-09 02:18:00,
2013-07-08 22:19:00,70.7,11.5,30.35,South,180,0.0,2.0,10,0.00,,,0.00,meteohub,2013-07-09 02:19:00,
2013-07-08 22:21:00,70.7,15.6,30.35,SE,135,2.0,2.0,12,0.00,,,0.00,meteohub,2013-07-09 02:21:00,
2013-07-08 22:23:00,70.7,15.6,30.35,South,180,0.0,2.0,12,0.00,,,0.00,meteohub,2013-07-09 02:23:00,
2013-07-08 22:27:00,70.7,15.6,30.35,South,180,2.0,2.0,12,0.00,,,0.00,meteohub,2013-07-09 02:27:00,
2013-07-08 22:29:00,70.7,17.4,30.35,WSW,248,1.0,2.0,13,0.00,,,0.00,meteohub,2013-07-09 02:29:00,
2013-07-08 22:32:00,70.7,15.6,30.35,SE,135,0.0,2.0,12,0.00,,,0.00,meteohub,2013-07-09 02:32:00,
2013-07-08 22:33:00,70.7,15.6,30.35,SE,135,0.0,2.0,12,0.00,,,0.00,meteohub,2013-07-09 02:33:00,
2013-07-08 22:35:00,70.5,17.2,30.35,WSW,248,0.0,2.0,13,0.00,,,0.00,meteohub,2013-07-09 02:35:00,
2013-07-08 22:37:00,70.5,17.2,30.35,South,180,0.0,2.0,13,0.00,,,0.00,meteohub,2013-07-09 02:37:00,
2013-07-08 22:38:00,70.7,17.4,30.35,South,180,2.0,2.0,13,0.00,,,0.00,meteohub,2013-07-09 02:38:00,
2013-07-08 22:41:00,70.7,17.4,30.35,South,180,0.0,2.0,13,0.00,,,0.00,meteohub,2013-07-09 02:41:00,
2013-07-08 22:43:00,70.7,17.4,30.35,SE,135,0.0,2.0,13,0.00,,,0.00,meteohub,2013-07-09 02:43:00,
2013-07-08 22:47:00,70.7,17.4,30.35,South,180,2.0,2.0,13,0.00,,,0.00,meteohub,2013-07-09 02:47:00,
2013-07-08 22:48:00,70.7,17.4,30.35,South,180,2.0,2.0,13,0.00,,,0.00,meteohub,2013-07-09 02:48:00,
2013-07-08 22:50:00,70.9,15.8,30.35,South,180,2.0,2.0,12,0.00,,,0.00,meteohub,2013-07-09 02:50:00,
2013-07-08 22:54:00,70.9,15.8,30.35,South,180,2.0,2.0,12,0.00,,,0.00,meteohub,2013-07-09 02:54:00,
2013-07-08 22:55:00,70.9,15.8,30.35,South,180,2.0,2.0,12,0.00,,,0.00,meteohub,2013-07-09 02:55:00,
2013-07-08 22:56:00,70.9,15.8,30.35,South,180,2.0,2.0,12,0.00,,,0.00,meteohub,2013-07-09 02:56:00,
2013-07-08 23:01:00,70.9,17.6,30.35,South,180,2.0,2.0,13,0.00,,,0.00,meteohub,2013-07-09 03:01:00,
2013-07-08 23:02:00,70.9,17.6,30.35,South,180,2.0,2.0,13,0.00,,,0.00,meteohub,2013-07-09 03:02:00,
2013-07-08 23:08:00,70.7,19.2,30.35,SE,135,3.0,4.0,14,0.00,,,0.00,meteohub,2013-07-09 03:08:00,
2013-07-08 23:10:00,70.7,20.8,30.35,South,180,2.0,4.0,15,0.00,,,0.00,meteohub,2013-07-09 03:10:00,
2013-07-08 23:14:00,70.7,20.8,30.35,South,180,0.0,4.0,15,0.00,,,0.00,meteohub,2013-07-09 03:14:00,
2013-07-08 23:17:00,70.5,22.1,30.35,East,90,1.0,4.0,16,0.00,,,0.00,meteohub,2013-07-09 03:17:00,
2013-07-08 23:20:00,70.5,22.1,30.34,South,180,2.0,4.0,16,0.00,,,0.00,meteohub,2013-07-09 03:20:00,
2013-07-08 23:22:00,70.3,22.1,30.35,SE,135,3.0,4.0,16,0.00,,,0.00,meteohub,2013-07-09 03:22:00,
2013-07-08 23:23:00,70.3,22.1,30.35,SE,135,3.0,4.0,16,0.00,,,0.00,meteohub,2013-07-09 03:23:00,
2013-07-08 23:27:00,70.2,24.6,30.35,East,90,2.0,4.0,18,0.00,,,0.00,meteohub,2013-07-09 03:27:00,
2013-07-08 23:30:00,70.2,24.6,30.35,East,90,3.0,4.0,18,0.00,,,0.00,meteohub,2013-07-09 03:30:00,
2013-07-08 23:32:00,70.2,26.1,30.34,South,180,4.0,4.0,19,0.00,,,0.00,meteohub,2013-07-09 03:32:00,
2013-07-08 23:33:00,70.2,26.1,30.35,SE,135,3.0,4.0,19,0.00,,,0.00,meteohub,2013-07-09 03:33:00,
2013-07-08 23:36:00,70.2,27.1,30.35,SE,135,4.0,4.0,20,0.00,,,0.00,meteohub,2013-07-09 03:36:00,
2013-07-08 23:38:00,70.0,25.9,30.34,South,180,2.0,4.0,19,0.00,,,0.00,meteohub,2013-07-09 03:38:00,
2013-07-08 23:39:00,70.0,25.9,30.35,South,180,2.0,4.0,19,0.00,,,0.00,meteohub,2013-07-09 03:39:00,
2013-07-08 23:41:00,70.0,27.1,30.34,WSW,248,4.0,4.0,20,0.00,,,0.00,meteohub,2013-07-09 03:41:00,
2013-07-08 23:46:00,70.0,27.1,30.35,South,180,2.0,4.0,20,0.00,,,0.00,meteohub,2013-07-09 03:46:00,
2013-07-08 23:47:00,70.0,27.1,30.35,SE,135,2.0,4.0,20,0.00,,,0.00,meteohub,2013-07-09 03:47:00,
2013-07-08 23:51:00,69.8,27.0,30.35,NW,315,3.0,4.0,20,0.00,,,0.00,meteohub,2013-07-09 03:51:00,
2013-07-08 23:52:00,69.8,27.0,30.35,NW,315,3.0,4.0,20,0.00,,,0.00,meteohub,2013-07-09 03:52:00,
2013-07-08 23:53:00,69.8,27.0,30.35,WSW,248,3.0,4.0,20,0.00,,,0.00,meteohub,2013-07-09 03:53:00,
2013-07-08 23:58:00,69.8,28.0,30.34,South,180,0.0,4.0,21,0.00,,,0.00,meteohub,2013-07-09 03:58:00,